Time,TemperatureF,DewpointF,PressureIn,WindDirection,WindDirectionDegrees,WindSpeedMPH,WindSpeedGustMPH,Humidity,HourlyPrecipIn,Conditions,Clouds,dailyrainin,SoftwareType,DateUTC
2013-02-03 00:00:00,26.8,19.9,30.03,NW,315,5.8,5.8,75,0.00,,SKC,0.00,VWS V14.01,2013-02-03 05:00:00,
2013-02-03 00:01:00,26.8,20.2,30.03,NW,315,5.8,5.8,76,0.00,,SKC,0.00,VWS V14.01,2013-02-03 05:01:00,
2013-02-03 00:02:00,26.8,19.9,29.97,NNW,338,4.7,4.7,75,0.00,,SKC,0.00,VWS V14.01,2013-02-03 05:02:00,
2013-02-03 00:04:00,26.8,19.9,29.97,NNW,338,4.7,4.7,75,0.00,,SKC,0.00,VWS V14.01,2013-02-03 05:04:00,
2013-02-03 00:06:00,26.8,20.2,30.03,NW,315,3.8,6.5,76,0.00,,SKC,0.00,VWS V14.01,2013-02-03 05:06:00,
2013-02-03 00:08:00,26.8,19.9,29.97,NNW,338,4.7,4.7,75,0.00,,SKC,0.00,VWS V14.01,2013-02-03 05:08:00,
2013-02-03 00:10:00,26.8,19.9,29.97,NNW,338,4.7,4.7,75,0.00,,SKC,0.00,VWS V14.01,2013-02-03 05:10:00,
2013-02-03 00:11:00,26.8,20.2,30.03,NW,315,3.8,3.8,76,0.00,,SKC,0.00,VWS V14.01,2013-02-03 05:11:00,
2013-02-03 00:12:00,26.8,19.9,29.97,NNW,338,4.7,4.7,75,0.00,,SKC,0.00,VWS V14.01,2013-02-03 05:12:00,
2013-02-03 00:14:00,26.8,20.2,29.97,West,270,2.0,4.7,76,0.00,,SKC,0.00,VWS V14.01,2013-02-03 05:14:00,
2013-02-03 00:16:00,26.8,19.6,30.00,WNW,292,4.9,4.9,74,0.00,,SKC,0.00,VWS V14.01,2013-02-03 05:16:00,
2013-02-03 00:18:00,26.8,20.2,29.97,West,270,2.0,2.0,76,0.00,,SKC,0.00,VWS V14.01,2013-02-03 05:18:00,
2013-02-03 00:21:00,26.8,20.2,30.00,West,270,5.8,5.8,76,0.00,,SKC,0.00,VWS V14.01,2013-02-03 05:21:00,
2013-02-03 00:22:00,26.8,20.2,29.97,West,270,2.0,2.0,76,0.00,,SKC,0.00,VWS V14.01,2013-02-03 05:22:00,
2013-02-03 00:24:00,26.8,20.2,29.97,West,270,2.0,2.0,76,0.00,,SKC,0.00,VWS V14.01,2013-02-03 05:24:00,
2013-02-03 00:26:00,26.8,20.2,30.00,West,270,5.8,5.8,76,0.00,,SKC,0.00,VWS V14.01,2013-02-03 05:26:00,
2013-02-03 00:28:00,26.6,20.4,29.97,West,270,2.0,2.0,77,0.00,,SKC,0.00,VWS V14.01,2013-02-03 05:28:00,
2013-02-03 00:30:00,26.6,20.1,29.97,West,270,2.0,2.0,76,0.00,,SKC,0.00,VWS V14.01,2013-02-03 05:30:00,
2013-02-03 00:31:00,26.8,19.9,30.00,NW,315,3.8,3.8,75,0.00,,SKC,0.00,VWS V14.01,2013-02-03 05:31:00,
2013-02-03 00:32:00,26.6,20.1,29.97,West,270,2.0,2.0,76,0.00,,SKC,0.00,VWS V14.01,2013-02-03 05:32:00,
2013-02-03 00:34:00,26.4,19.9,29.97,NNW,338,3.8,3.8,76,0.00,,SKC,0.00,VWS V14.01,2013-02-03 05:34:00,
2013-02-03 00:36:00,26.8,20.2,30.00,NNW,338,4.0,4.0,76,0.00,,SKC,0.00,VWS V14.01,2013-02-03 05:36:00,
2013-02-03 00:38:00,26.6,20.1,29.97,NNW,338,3.8,3.8,76,0.00,,SKC,0.00,VWS V14.01,2013-02-03 05:38:00,
2013-02-03 00:40:00,26.4,19.9,29.97,NNW,338,3.8,3.8,76,0.00,,SKC,0.00,VWS V14.01,2013-02-03 05:40:00,
2013-02-03 00:41:00,26.8,20.2,30.00,NNW,338,4.0,4.0,76,0.00,,SKC,0.00,VWS V14.01,2013-02-03 05:41:00,
2013-02-03 00:42:00,26.4,19.9,29.97,NNW,338,3.8,3.8,76,0.00,,SKC,0.00,VWS V14.01,2013-02-03 05:42:00,
2013-02-03 00:44:00,26.4,19.9,29.97,NNW,338,3.8,3.8,76,0.00,,SKC,0.00,VWS V14.01,2013-02-03 05:44:00,
2013-02-03 00:46:00,26.8,19.9,29.97,NW,315,2.9,2.9,75,0.00,,SKC,0.00,VWS V14.01,2013-02-03 05:46:00,
2013-02-03 00:48:00,26.4,20.2,29.97,NNW,338,3.8,3.8,77,0.00,,SKC,0.00,VWS V14.01,2013-02-03 05:48:00,
2013-02-03 00:50:00,26.4,20.2,29.97,NNW,338,3.8,3.8,77,0.00,,SKC,0.00,VWS V14.01,2013-02-03 05:50:00,
2013-02-03 00:51:00,26.8,19.9,29.97,NW,315,4.0,4.0,75,0.00,,SKC,0.00,VWS V14.01,2013-02-03 05:51:00,
2013-02-03 00:52:00,26.4,19.9,29.97,NNW,338,3.8,3.8,76,0.00,,SKC,0.00,VWS V14.01,2013-02-03 05:52:00,
2013-02-03 00:54:00,26.4,19.9,29.97,NNW,338,3.8,3.8,76,0.00,,SKC,0.00,VWS V14.01,2013-02-03 05:54:00,
2013-02-03 00:56:00,26.2,19.7,29.97,NNW,338,2.9,3.8,76,0.00,,SKC,0.00,VWS V14.01,2013-02-03 05:56:00,
2013-02-03 00:57:00,26.8,20.2,29.97,NNW,338,4.7,4.7,76,0.00,,SKC,0.00,VWS V14.01,2013-02-03 05:57:00,
2013-02-03 00:58:00,26.2,19.7,29.97,NNW,338,2.9,2.9,76,0.00,,SKC,0.00,VWS V14.01,2013-02-03 05:58:00,
2013-02-03 01:00:00,26.2,20.0,29.97,NNW,338,2.9,2.9,77,0.00,,SKC,0.00,VWS V14.01,2013-02-03 06:00:00,
2013-02-03 01:02:00,26.8,19.9,29.97,NNW,338,4.7,4.7,75,0.00,,SKC,0.00,VWS V14.01,2013-02-03 06:02:00,
2013-02-03 01:04:00,26.2,20.0,29.97,NNW,338,4.0,4.0,77,0.00,,SKC,0.00,VWS V14.01,2013-02-03 06:04:00,
2013-02-03 01:06:00,26.2,20.0,29.97,NNW,338,4.0,4.0,77,0.00,,SKC,0.00,VWS V14.01,2013-02-03 06:06:00,
2013-02-03 01:07:00,26.8,19.9,29.97,NNW,338,4.7,4.7,75,0.00,,SKC,0.00,VWS V14.01,2013-02-03 06:07:00,
2013-02-03 01:08:00,26.2,20.0,29.97,NNW,338,4.0,4.0,77,0.00,,SKC,0.00,VWS V14.01,2013-02-03 06:08:00,
2013-02-03 01:10:00,26.2,20.0,29.97,NNW,338,4.0,4.0,77,0.00,,SKC,0.00,VWS V14.01,2013-02-03 06:10:00,
2013-02-03 01:12:00,26.8,19.9,29.97,NNW,338,4.7,4.7,75,0.00,,SKC,0.00,VWS V14.01,2013-02-03 06:12:00,
2013-02-03 01:14:00,26.4,20.2,29.97,NNW,338,4.0,4.0,77,0.00,,SKC,0.00,VWS V14.01,2013-02-03 06:14:00,
2013-02-03 01:17:00,26.8,20.2,29.97,West,270,2.0,2.0,76,0.00,,SKC,0.00,VWS V14.01,2013-02-03 06:17:00,
2013-02-03 01:18:00,26.4,20.5,29.97,NNW,338,4.7,4.9,78,0.00,,SKC,0.00,VWS V14.01,2013-02-03 06:18:00,
2013-02-03 01:20:00,26.4,20.5,29.97,NNW,338,4.7,4.7,78,0.00,,SKC,0.00,VWS V14.01,2013-02-03 06:20:00,
2013-02-03 01:22:00,26.8,20.2,29.97,West,270,2.0,2.0,76,0.00,,SKC,0.00,VWS V14.01,2013-02-03 06:22:00,
2013-02-03 01:24:00,26.4,20.5,29.97,NNW,338,4.7,4.7,78,0.00,,SKC,0.00,VWS V14.01,2013-02-03 06:24:00,
2013-02-03 01:26:00,26.6,20.4,29.97,West,270,2.0,2.0,77,0.00,,SKC,0.00,VWS V14.01,2013-02-03 06:26:00,
2013-02-03 01:28:00,26.4,20.5,29.97,NNW,338,4.7,4.7,78,0.00,,SKC,0.00,VWS V14.01,2013-02-03 06:28:00,
2013-02-03 01:30:00,26.4,20.5,29.94,NNW,338,4.7,4.7,78,0.00,,SKC,0.00,VWS V14.01,2013-02-03 06:30:00,
2013-02-03 01:32:00,26.6,20.1,29.97,West,270,2.0,2.0,76,0.00,,SKC,0.00,VWS V14.01,2013-02-03 06:32:00,
2013-02-03 01:34:00,26.4,20.5,29.94,NNW,338,4.7,4.7,78,0.00,,SKC,0.00,VWS V14.01,2013-02-03 06:34:00,
2013-02-03 01:36:00,26.4,20.5,29.94,NNW,338,4.7,4.7,78,0.00,,SKC,0.00,VWS V14.01,2013-02-03 06:36:00,
2013-02-03 01:37:00,26.4,19.9,29.97,NNW,338,3.8,3.8,76,0.00,,SKC,0.00,VWS V14.01,2013-02-03 06:37:00,
2013-02-03 01:38:00,26.6,20.7,29.94,NNW,338,4.7,4.7,78,0.00,,SKC,0.00,VWS V14.01,2013-02-03 06:38:00,
2013-02-03 01:40:00,26.6,20.7,29.94,NNW,338,4.7,4.7,78,0.00,,SKC,0.00,VWS V14.01,2013-02-03 06:40:00,
2013-02-03 01:42:00,26.4,19.9,29.97,NNW,338,3.8,3.8,76,0.00,,SKC,0.00,VWS V14.01,2013-02-03 06:42:00,
2013-02-03 01:44:00,26.6,20.7,29.97,NNW,338,4.7,4.7,78,0.00,,SKC,0.00,VWS V14.01,2013-02-03 06:44:00,
2013-02-03 01:46:00,26.6,20.7,29.97,NNW,338,4.7,4.7,78,0.00,,SKC,0.00,VWS V14.01,2013-02-03 06:46:00,
2013-02-03 01:47:00,26.4,20.2,29.97,NNW,338,3.8,3.8,77,0.00,,SKC,0.00,VWS V14.01,2013-02-03 06:47:00,
2013-02-03 01:48:00,26.6,20.4,29.97,NNW,338,4.7,4.7,77,0.00,,SKC,0.00,VWS V14.01,2013-02-03 06:48:00,
2013-02-03 01:50:00,26.6,20.4,29.97,NNW,338,4.7,4.7,77,0.00,,SKC,0.00,VWS V14.01,2013-02-03 06:50:00,
2013-02-03 01:52:00,26.4,19.9,29.97,NNW,338,3.8,3.8,76,0.00,,SKC,0.00,VWS V14.01,2013-02-03 06:52:00,
2013-02-03 01:54:00,26.6,20.4,29.97,NNW,338,3.1,3.1,77,0.00,,SKC,0.00,VWS V14.01,2013-02-03 06:54:00,
2013-02-03 01:56:00,26.6,20.4,29.97,NNW,338,3.1,3.1,77,0.00,,SKC,0.00,VWS V14.01,2013-02-03 06:56:00,
2013-02-03 01:57:00,26.2,19.7,29.97,NNW,338,2.9,3.8,76,0.00,,SKC,0.00,VWS V14.01,2013-02-03 06:57:00,
2013-02-03 01:58:00,26.6,20.4,29.97,NNW,338,3.1,3.1,77,0.00,,SKC,0.00,VWS V14.01,2013-02-03 06:58:00,
2013-02-03 02:00:00,26.6,20.4,29.94,NNW,338,3.1,3.1,77,0.00,,SKC,0.00,VWS V14.01,2013-02-03 07:00:00,
2013-02-03 02:02:00,26.2,20.0,29.97,NNW,338,2.9,2.9,77,0.00,,SKC,0.00,VWS V14.01,2013-02-03 07:02:00,
2013-02-03 02:07:00,26.2,20.0,29.97,NNW,338,4.0,4.0,77,0.00,,SKC,0.00,VWS V14.01,2013-02-03 07:07:00,
2013-02-03 02:12:00,26.2,20.0,29.97,NNW,338,4.0,4.0,77,0.00,,SKC,0.00,VWS V14.01,2013-02-03 07:12:00,
2013-02-03 02:16:00,26.6,20.4,29.94,NNW,338,3.1,3.1,77,0.00,,SKC,0.00,VWS V14.01,2013-02-03 07:16:00,
2013-02-03 02:17:00,26.4,20.5,29.97,NW,315,4.9,4.9,78,0.00,,SKC,0.00,VWS V14.01,2013-02-03 07:17:00,
2013-02-03 02:18:00,26.4,20.2,29.94,NNW,338,2.5,3.1,77,0.00,,SKC,0.00,VWS V14.01,2013-02-03 07:18:00,
2013-02-03 02:20:00,26.4,20.2,29.94,NNW,338,2.5,2.5,77,0.00,,SKC,0.00,VWS V14.01,2013-02-03 07:20:00,
2013-02-03 02:22:00,26.4,20.5,29.97,NNW,338,4.7,4.7,78,0.00,,SKC,0.00,VWS V14.01,2013-02-03 07:22:00,
2013-02-03 02:24:00,26.2,19.7,29.94,NNW,338,4.3,4.3,76,0.00,,SKC,0.00,VWS V14.01,2013-02-03 07:24:00,
2013-02-03 02:26:00,26.2,20.0,29.94,NNW,338,4.3,4.3,77,0.00,,SKC,0.00,VWS V14.01,2013-02-03 07:26:00,
2013-02-03 02:27:00,26.4,20.5,29.97,NNW,338,4.7,4.7,78,0.00,,SKC,0.00,VWS V14.01,2013-02-03 07:27:00,
2013-02-03 02:28:00,26.2,20.0,29.94,NW,315,2.9,4.3,77,0.00,,SKC,0.00,VWS V14.01,2013-02-03 07:28:00,
2013-02-03 02:30:00,26.2,20.0,29.94,NW,315,2.9,2.9,77,0.00,,SKC,0.00,VWS V14.01,2013-02-03 07:30:00,
2013-02-03 02:32:00,26.4,20.5,29.94,NNW,338,4.7,4.7,78,0.00,,SKC,0.00,VWS V14.01,2013-02-03 07:32:00,
2013-02-03 02:34:00,26.1,19.5,29.94,NW,315,2.9,2.9,76,0.00,,SKC,0.00,VWS V14.01,2013-02-03 07:34:00,
2013-02-03 02:36:00,26.1,19.5,29.94,NW,315,2.9,2.9,76,0.00,,SKC,0.00,VWS V14.01,2013-02-03 07:36:00,
2013-02-03 02:37:00,26.6,20.7,29.94,NNW,338,4.7,4.7,78,0.00,,SKC,0.00,VWS V14.01,2013-02-03 07:37:00,
2013-02-03 02:38:00,26.1,19.5,29.94,NW,315,2.9,2.9,76,0.00,,SKC,0.00,VWS V14.01,2013-02-03 07:38:00,
2013-02-03 02:40:00,26.1,19.5,29.94,NW,315,2.9,2.9,76,0.00,,SKC,0.00,VWS V14.01,2013-02-03 07:40:00,
2013-02-03 02:42:00,26.6,20.7,29.94,NNW,338,4.7,4.7,78,0.00,,SKC,0.00,VWS V14.01,2013-02-03 07:42:00,
2013-02-03 02:44:00,25.9,19.4,29.91,NW,315,2.0,2.0,76,0.00,,SKC,0.00,VWS V14.01,2013-02-03 07:44:00,
2013-02-03 02:46:00,25.9,19.4,29.91,NW,315,2.5,3.1,76,0.00,,SKC,0.00,VWS V14.01,2013-02-03 07:46:00,
2013-02-03 02:47:00,26.6,20.4,29.97,NNW,338,4.7,4.7,77,0.00,,SKC,0.00,VWS V14.01,2013-02-03 07:47:00,
2013-02-03 02:48:00,25.9,19.4,29.91,NNW,338,2.5,2.5,76,0.00,,SKC,0.00,VWS V14.01,2013-02-03 07:48:00,
2013-02-03 02:50:00,25.9,19.4,29.91,NW,315,3.6,3.6,76,0.00,,SKC,0.00,VWS V14.01,2013-02-03 07:50:00,
2013-02-03 02:52:00,26.6,20.4,29.97,NNW,338,3.1,4.7,77,0.00,,SKC,0.00,VWS V14.01,2013-02-03 07:52:00,
2013-02-03 02:54:00,25.7,18.9,29.91,North,0,3.4,3.4,75,0.00,,SKC,0.00,VWS V14.01,2013-02-03 07:54:00,
2013-02-03 02:56:00,25.7,18.9,29.91,North,0,3.4,3.4,75,0.00,,SKC,0.00,VWS V14.01,2013-02-03 07:56:00,
2013-02-03 02:57:00,26.6,20.4,29.97,NNW,338,3.1,3.1,77,0.00,,SKC,0.00,VWS V14.01,2013-02-03 07:57:00,
2013-02-03 02:58:00,25.7,18.9,29.91,North,0,3.4,3.4,75,0.00,,SKC,0.00,VWS V14.01,2013-02-03 07:58:00,
2013-02-03 02:59:00,26.6,20.4,29.94,NNW,338,3.1,3.1,77,0.00,,SKC,0.00,VWS V14.01,2013-02-03 07:59:00,
2013-02-03 03:00:00,26.6,20.4,29.94,NNW,338,3.1,3.1,77,0.00,,SKC,0.00,VWS V14.01,2013-02-03 08:00:00,
2013-02-03 03:02:00,25.7,18.9,29.91,North,0,3.4,3.4,75,0.00,,SKC,0.00,VWS V14.01,2013-02-03 08:02:00,
2013-02-03 03:04:00,25.7,18.9,29.91,North,0,3.4,3.4,75,0.00,,SKC,0.00,VWS V14.01,2013-02-03 08:04:00,
2013-02-03 03:06:00,25.5,18.7,29.91,North,0,2.5,3.4,75,0.00,,SKC,0.00,VWS V14.01,2013-02-03 08:06:00,
2013-02-03 03:08:00,25.5,18.7,29.91,North,0,2.5,2.5,75,0.00,,SKC,0.00,VWS V14.01,2013-02-03 08:08:00,
2013-02-03 03:10:00,25.5,18.4,29.91,North,0,2.5,2.5,74,0.00,,SKC,0.00,VWS V14.01,2013-02-03 08:10:00,
2013-02-03 03:12:00,25.5,18.4,29.91,North,0,2.5,2.5,74,0.00,,SKC,0.00,VWS V14.01,2013-02-03 08:12:00,
2013-02-03 03:14:00,25.5,18.4,29.91,North,0,2.5,2.5,74,0.00,,SKC,0.00,VWS V14.01,2013-02-03 08:14:00,
2013-02-03 03:16:00,26.6,20.4,29.94,NNW,338,3.1,3.1,77,0.00,,SKC,0.00,VWS V14.01,2013-02-03 08:16:00,
2013-02-03 03:18:00,25.7,18.9,29.91,North,0,2.5,2.5,75,0.00,,SKC,0.00,VWS V14.01,2013-02-03 08:18:00,
2013-02-03 03:20:00,25.7,18.6,29.91,North,0,2.5,2.5,74,0.00,,SKC,0.00,VWS V14.01,2013-02-03 08:20:00,
2013-02-03 03:21:00,26.2,19.7,29.94,NNW,338,2.5,2.5,76,0.00,,SKC,0.00,VWS V14.01,2013-02-03 08:21:00,
2013-02-03 03:22:00,25.7,18.6,29.91,North,0,2.5,2.5,74,0.00,,SKC,0.00,VWS V14.01,2013-02-03 08:22:00,
2013-02-03 03:24:00,25.7,18.6,29.91,North,0,2.5,2.5,74,0.00,,SKC,0.00,VWS V14.01,2013-02-03 08:24:00,
2013-02-03 03:26:00,26.2,20.0,29.94,NW,315,2.9,4.3,77,0.00,,SKC,0.00,VWS V14.01,2013-02-03 08:26:00,
2013-02-03 03:28:00,25.7,18.6,29.91,North,0,2.5,2.5,74,0.00,,SKC,0.00,VWS V14.01,2013-02-03 08:28:00,
2013-02-03 03:30:00,25.7,18.6,29.91,North,0,2.5,2.5,74,0.00,,SKC,0.00,VWS V14.01,2013-02-03 08:30:00,
2013-02-03 03:31:00,26.2,20.0,29.94,NW,315,2.9,2.9,77,0.00,,SKC,0.00,VWS V14.01,2013-02-03 08:31:00,
2013-02-03 03:32:00,25.7,18.6,29.91,North,0,2.5,2.5,74,0.00,,SKC,0.00,VWS V14.01,2013-02-03 08:32:00,
2013-02-03 03:34:00,25.7,18.6,29.91,North,0,2.5,2.5,74,0.00,,SKC,0.00,VWS V14.01,2013-02-03 08:34:00,
2013-02-03 03:36:00,26.1,19.5,29.94,NW,315,2.9,2.9,76,0.00,,SKC,0.00,VWS V14.01,2013-02-03 08:36:00,
2013-02-03 03:38:00,25.7,18.3,29.91,North,0,2.5,2.5,73,0.00,,SKC,0.00,VWS V14.01,2013-02-03 08:38:00,
2013-02-03 03:40:00,25.7,18.3,29.91,North,0,2.5,2.5,73,0.00,,SKC,0.00,VWS V14.01,2013-02-03 08:40:00,
2013-02-03 03:41:00,26.1,19.5,29.94,NW,315,2.0,2.9,76,0.00,,SKC,0.00,VWS V14.01,2013-02-03 08:41:00,
2013-02-03 03:42:00,25.7,18.6,29.91,North,0,2.5,2.5,74,0.00,,SKC,0.00,VWS V14.01,2013-02-03 08:42:00,
2013-02-03 03:44:00,25.7,18.6,29.91,North,0,2.5,2.5,74,0.00,,SKC,0.00,VWS V14.01,2013-02-03 08:44:00,
2013-02-03 03:46:00,25.9,19.4,29.91,NNW,338,2.5,2.5,76,0.00,,SKC,0.00,VWS V14.01,2013-02-03 08:46:00,
2013-02-03 03:48:00,25.7,18.6,29.91,North,0,2.5,2.5,74,0.00,,SKC,0.00,VWS V14.01,2013-02-03 08:48:00,
2013-02-03 03:50:00,25.5,18.4,29.91,North,0,2.5,2.5,74,0.00,,SKC,0.00,VWS V14.01,2013-02-03 08:50:00,
2013-02-03 03:51:00,25.7,19.2,29.91,North,0,3.4,3.6,76,0.00,,SKC,0.00,VWS V14.01,2013-02-03 08:51:00,
2013-02-03 03:52:00,25.5,18.4,29.91,North,0,2.5,2.5,74,0.00,,SKC,0.00,VWS V14.01,2013-02-03 08:52:00,
2013-02-03 03:54:00,25.5,18.1,29.91,North,0,2.5,2.5,73,0.00,,SKC,0.00,VWS V14.01,2013-02-03 08:54:00,
2013-02-03 03:56:00,25.7,18.9,29.91,North,0,3.4,3.4,75,0.00,,SKC,0.00,VWS V14.01,2013-02-03 08:56:00,
2013-02-03 03:58:00,25.3,18.2,29.91,North,0,2.5,2.5,74,0.00,,SKC,0.00,VWS V14.01,2013-02-03 08:58:00,
2013-02-03 04:00:00,25.3,18.2,29.91,North,0,5.4,5.4,74,0.00,,SKC,0.00,VWS V14.01,2013-02-03 09:00:00,
2013-02-03 04:01:00,25.7,18.9,29.91,North,0,3.4,3.4,75,0.00,,SKC,0.00,VWS V14.01,2013-02-03 09:01:00,
2013-02-03 04:02:00,25.3,17.9,29.91,North,0,3.8,5.4,73,0.00,,SKC,0.00,VWS V14.01,2013-02-03 09:02:00,
2013-02-03 04:04:00,25.2,17.7,29.91,North,0,5.4,5.4,73,0.00,,SKC,0.00,VWS V14.01,2013-02-03 09:04:00,
2013-02-03 04:06:00,25.5,18.7,29.91,North,0,2.5,3.4,75,0.00,,SKC,0.00,VWS V14.01,2013-02-03 09:06:00,
2013-02-03 04:08:00,25.0,17.6,29.91,North,0,5.8,5.8,73,0.00,,SKC,0.00,VWS V14.01,2013-02-03 09:08:00,
2013-02-03 04:10:00,25.0,17.6,29.91,North,0,5.8,5.8,73,0.00,,SKC,0.00,VWS V14.01,2013-02-03 09:10:00,
2013-02-03 04:11:00,25.5,18.4,29.91,North,0,2.5,2.5,74,0.00,,SKC,0.00,VWS V14.01,2013-02-03 09:11:00,
2013-02-03 04:12:00,25.0,17.6,29.91,North,0,5.8,5.8,73,0.00,,SKC,0.00,VWS V14.01,2013-02-03 09:12:00,
2013-02-03 04:14:00,25.0,17.6,29.91,NNE,22,3.6,5.8,73,0.00,,SKC,0.00,VWS V14.01,2013-02-03 09:14:00,
2013-02-03 04:16:00,25.5,18.4,29.91,North,0,2.5,2.5,74,0.00,,SKC,0.00,VWS V14.01,2013-02-03 09:16:00,
2013-02-03 04:18:00,24.8,17.4,29.91,NNE,22,3.6,3.6,73,0.00,,SKC,0.00,VWS V14.01,2013-02-03 09:18:00,
2013-02-03 04:20:00,24.8,17.4,29.91,NNE,22,3.6,3.6,73,0.00,,SKC,0.00,VWS V14.01,2013-02-03 09:20:00,
2013-02-03 04:21:00,25.7,18.6,29.91,North,0,2.5,2.5,74,0.00,,SKC,0.00,VWS V14.01,2013-02-03 09:21:00,
2013-02-03 04:22:00,24.8,17.4,29.91,NNE,22,3.6,3.6,73,0.00,,SKC,0.00,VWS V14.01,2013-02-03 09:22:00,
2013-02-03 04:24:00,24.8,17.4,29.91,NNE,22,3.6,3.6,73,0.00,,SKC,0.00,VWS V14.01,2013-02-03 09:24:00,
2013-02-03 04:26:00,25.7,18.6,29.91,North,0,2.5,2.5,74,0.00,,SKC,0.00,VWS V14.01,2013-02-03 09:26:00,
2013-02-03 04:28:00,24.6,17.2,29.91,NW,315,4.0,4.0,73,0.00,,SKC,0.00,VWS V14.01,2013-02-03 09:28:00,
2013-02-03 04:30:00,24.6,16.9,29.91,NW,315,4.0,4.0,72,0.00,,SKC,0.00,VWS V14.01,2013-02-03 09:30:00,
2013-02-03 04:31:00,25.7,18.6,29.91,North,0,2.5,2.5,74,0.00,,SKC,0.00,VWS V14.01,2013-02-03 09:31:00,
2013-02-03 04:32:00,24.4,16.7,29.91,NW,315,4.0,4.0,72,0.00,,SKC,0.00,VWS V14.01,2013-02-03 09:32:00,
2013-02-03 04:34:00,24.4,16.7,29.91,NW,315,4.0,4.0,72,0.00,,SKC,0.00,VWS V14.01,2013-02-03 09:34:00,
2013-02-03 04:36:00,25.7,18.3,29.91,North,0,2.5,2.5,73,0.00,,SKC,0.00,VWS V14.01,2013-02-03 09:36:00,
2013-02-03 04:38:00,24.4,16.7,29.91,NW,315,4.0,4.0,72,0.00,,SKC,0.00,VWS V14.01,2013-02-03 09:38:00,
2013-02-03 04:40:00,24.4,16.7,29.91,NW,315,4.0,4.0,72,0.00,,SKC,0.00,VWS V14.01,2013-02-03 09:40:00,
2013-02-03 04:41:00,25.7,18.6,29.91,North,0,2.5,2.5,74,0.00,,SKC,0.00,VWS V14.01,2013-02-03 09:41:00,
2013-02-03 04:42:00,24.4,16.7,29.91,NW,315,4.0,4.0,72,0.00,,SKC,0.00,VWS V14.01,2013-02-03 09:42:00,
2013-02-03 04:44:00,24.4,16.7,29.91,NW,315,4.0,4.0,72,0.00,,SKC,0.00,VWS V14.01,2013-02-03 09:44:00,
2013-02-03 04:46:00,25.7,18.6,29.91,North,0,2.5,2.5,74,0.00,,SKC,0.00,VWS V14.01,2013-02-03 09:46:00,
2013-02-03 04:48:00,24.6,16.9,29.91,NW,315,4.0,4.0,72,0.00,,SKC,0.00,VWS V14.01,2013-02-03 09:48:00,
2013-02-03 04:50:00,24.6,16.9,29.91,North,0,3.4,4.0,72,0.00,,SKC,0.00,VWS V14.01,2013-02-03 09:50:00,
2013-02-03 04:51:00,25.5,18.4,29.91,North,0,2.5,2.5,74,0.00,,SKC,0.00,VWS V14.01,2013-02-03 09:51:00,
2013-02-03 04:52:00,24.6,16.9,29.91,North,0,3.4,3.4,72,0.00,,SKC,0.00,VWS V14.01,2013-02-03 09:52:00,
2013-02-03 04:54:00,24.6,16.9,29.91,North,0,3.4,3.4,72,0.00,,SKC,0.00,VWS V14.01,2013-02-03 09:54:00,
2013-02-03 04:56:00,25.3,17.9,29.91,North,0,2.5,2.5,73,0.00,,SKC,0.00,VWS V14.01,2013-02-03 09:56:00,
2013-02-03 04:58:00,24.6,16.9,29.91,North,0,3.4,3.4,72,0.00,,SKC,0.00,VWS V14.01,2013-02-03 09:58:00,
2013-02-03 05:00:00,24.8,17.1,29.91,North,0,3.4,3.4,72,0.00,,SKC,0.00,VWS V14.01,2013-02-03 10:00:00,
2013-02-03 05:01:00,25.3,17.9,29.91,North,0,3.8,5.4,73,0.00,,SKC,0.00,VWS V14.01,2013-02-03 10:01:00,
2013-02-03 05:02:00,24.8,17.1,29.91,North,0,3.4,3.4,72,0.00,,SKC,0.00,VWS V14.01,2013-02-03 10:02:00,
2013-02-03 05:04:00,24.8,17.1,29.91,North,0,3.4,3.4,72,0.00,,SKC,0.00,VWS V14.01,2013-02-03 10:04:00,
2013-02-03 05:07:00,25.2,17.7,29.91,North,0,5.8,5.8,73,0.00,,SKC,0.00,VWS V14.01,2013-02-03 10:07:00,
2013-02-03 05:08:00,24.8,17.1,29.91,North,0,3.4,3.4,72,0.00,,SKC,0.00,VWS V14.01,2013-02-03 10:08:00,
2013-02-03 05:10:00,24.8,16.8,29.91,North,0,3.4,3.4,71,0.00,,SKC,0.00,VWS V14.01,2013-02-03 10:10:00,
2013-02-03 05:12:00,25.0,17.6,29.91,North,0,5.8,5.8,73,0.00,,SKC,0.00,VWS V14.01,2013-02-03 10:12:00,
2013-02-03 05:14:00,24.8,16.8,29.91,NNE,22,3.8,3.8,71,0.00,,SKC,0.00,VWS V14.01,2013-02-03 10:14:00,
2013-02-03 05:16:00,24.8,16.8,29.91,North,0,5.8,5.8,71,0.00,,SKC,0.00,VWS V14.01,2013-02-03 10:16:00,
2013-02-03 05:17:00,24.8,17.4,29.91,NNE,22,3.6,3.6,73,0.00,,SKC,0.00,VWS V14.01,2013-02-03 10:17:00,
2013-02-03 05:18:00,24.8,16.8,29.91,North,0,5.8,5.8,71,0.00,,SKC,0.00,VWS V14.01,2013-02-03 10:18:00,
2013-02-03 05:20:00,24.8,16.4,29.91,North,0,5.8,5.8,70,0.00,,SKC,0.00,VWS V14.01,2013-02-03 10:20:00,
2013-02-03 05:22:00,24.8,17.4,29.91,NNE,22,3.6,3.6,73,0.00,,SKC,0.00,VWS V14.01,2013-02-03 10:22:00,
2013-02-03 05:24:00,24.6,16.2,29.91,North,0,5.8,5.8,70,0.00,,SKC,0.00,VWS V14.01,2013-02-03 10:24:00,
2013-02-03 05:26:00,24.4,15.7,29.91,North,0,5.8,5.8,69,0.00,,SKC,0.00,VWS V14.01,2013-02-03 10:26:00,
2013-02-03 05:27:00,24.6,17.2,29.91,NNE,22,3.6,3.6,73,0.00,,SKC,0.00,VWS V14.01,2013-02-03 10:27:00,
2013-02-03 05:28:00,24.4,15.7,29.91,North,0,5.8,5.8,69,0.00,,SKC,0.00,VWS V14.01,2013-02-03 10:28:00,
2013-02-03 05:30:00,24.4,15.7,29.91,North,0,5.8,5.8,69,0.00,,SKC,0.00,VWS V14.01,2013-02-03 10:30:00,
2013-02-03 05:32:00,24.4,16.7,29.91,NW,315,4.0,4.0,72,0.00,,SKC,0.00,VWS V14.01,2013-02-03 10:32:00,
2013-02-03 05:34:00,24.3,15.6,29.91,North,0,5.8,5.8,69,0.00,,SKC,0.00,VWS V14.01,2013-02-03 10:34:00,
2013-02-03 05:36:00,24.3,15.6,29.91,North,0,5.8,5.8,69,0.00,,SKC,0.00,VWS V14.01,2013-02-03 10:36:00,
2013-02-03 05:37:00,24.4,16.7,29.91,NW,315,4.0,4.0,72,0.00,,SKC,0.00,VWS V14.01,2013-02-03 10:37:00,
2013-02-03 05:38:00,24.3,15.2,29.91,North,0,5.8,5.8,68,0.00,,SKC,0.00,VWS V14.01,2013-02-03 10:38:00,
2013-02-03 05:40:00,24.1,15.1,29.91,North,0,5.8,5.8,68,0.00,,SKC,0.00,VWS V14.01,2013-02-03 10:40:00,
2013-02-03 05:42:00,24.4,16.7,29.91,NW,315,4.0,4.0,72,0.00,,SKC,0.00,VWS V14.01,2013-02-03 10:42:00,
2013-02-03 05:44:00,23.9,14.9,29.91,North,0,5.8,5.8,68,0.00,,SKC,0.00,VWS V14.01,2013-02-03 10:44:00,
2013-02-03 05:46:00,23.7,14.7,29.91,North,0,5.8,5.8,68,0.00,,SKC,0.00,VWS V14.01,2013-02-03 10:46:00,
2013-02-03 05:47:00,24.4,16.7,29.91,NW,315,4.0,4.0,72,0.00,,SKC,0.00,VWS V14.01,2013-02-03 10:47:00,
2013-02-03 05:48:00,23.7,14.7,29.91,North,0,5.8,5.8,68,0.00,,SKC,0.00,VWS V14.01,2013-02-03 10:48:00,
2013-02-03 05:50:00,23.7,14.7,29.91,North,0,5.8,5.8,68,0.00,,SKC,0.00,VWS V14.01,2013-02-03 10:50:00,
2013-02-03 05:52:00,24.6,16.9,29.91,North,0,3.4,3.4,72,0.00,,SKC,0.00,VWS V14.01,2013-02-03 10:52:00,
2013-02-03 05:54:00,23.5,14.2,29.91,North,0,5.8,5.8,67,0.00,,SKC,0.00,VWS V14.01,2013-02-03 10:54:00,
2013-02-03 05:56:00,23.5,14.2,29.91,SE,135,0.0,5.8,67,0.00,,SKC,0.00,VWS V14.01,2013-02-03 10:56:00,
2013-02-03 05:57:00,24.6,16.9,29.91,North,0,3.4,3.4,72,0.00,,SKC,0.00,VWS V14.01,2013-02-03 10:57:00,
2013-02-03 05:58:00,23.5,14.2,29.91,SE,135,0.0,0.0,67,0.00,,SKC,0.00,VWS V14.01,2013-02-03 10:58:00,
2013-02-03 06:00:00,23.5,14.6,29.88,SE,135,0.0,0.0,68,0.00,,SKC,0.00,VWS V14.01,2013-02-03 11:00:00,
2013-02-03 06:02:00,24.6,16.9,29.91,North,0,3.4,3.4,72,0.00,,SKC,0.00,VWS V14.01,2013-02-03 11:02:00,
2013-02-03 06:04:00,23.5,14.6,29.88,SE,135,0.0,0.0,68,0.00,,SKC,0.00,VWS V14.01,2013-02-03 11:04:00,
2013-02-03 06:06:00,23.4,14.4,29.88,SE,135,0.0,0.0,68,0.00,,SKC,0.00,VWS V14.01,2013-02-03 11:06:00,
2013-02-03 06:07:00,24.8,17.1,29.91,North,0,3.4,3.4,72,0.00,,SKC,0.00,VWS V14.01,2013-02-03 11:07:00,
2013-02-03 06:08:00,23.4,14.4,29.88,SE,135,0.0,0.0,68,0.00,,SKC,0.00,VWS V14.01,2013-02-03 11:08:00,
2013-02-03 06:10:00,23.4,14.4,29.88,SE,135,0.0,0.0,68,0.00,,SKC,0.00,VWS V14.01,2013-02-03 11:10:00,
2013-02-03 06:12:00,24.8,16.8,29.91,North,0,3.4,3.4,71,0.00,,SKC,0.00,VWS V14.01,2013-02-03 11:12:00,
2013-02-03 06:14:00,23.4,14.0,29.91,SE,135,0.0,0.0,67,0.00,,SKC,0.00,VWS V14.01,2013-02-03 11:14:00,
2013-02-03 06:16:00,23.4,14.0,29.91,SE,135,0.0,0.0,67,0.00,,SKC,0.00,VWS V14.01,2013-02-03 11:16:00,
2013-02-03 06:17:00,24.8,16.8,29.91,North,0,5.8,5.8,71,0.00,,SKC,0.00,VWS V14.01,2013-02-03 11:17:00,
2013-02-03 06:18:00,23.4,14.0,29.91,SE,135,0.0,0.0,67,0.00,,SKC,0.00,VWS V14.01,2013-02-03 11:18:00,
2013-02-03 06:20:00,23.4,14.0,29.91,SE,135,0.0,0.0,67,0.00,,SKC,0.00,VWS V14.01,2013-02-03 11:20:00,
2013-02-03 06:22:00,24.6,16.2,29.91,North,0,5.8,5.8,70,0.00,,SKC,0.00,VWS V14.01,2013-02-03 11:22:00,
2013-02-03 06:24:00,23.4,14.0,29.91,SE,135,0.0,0.0,67,0.00,,SKC,0.00,VWS V14.01,2013-02-03 11:24:00,
2013-02-03 06:26:00,23.4,14.0,29.91,SE,135,0.0,0.0,67,0.00,,SKC,0.00,VWS V14.01,2013-02-03 11:26:00,
2013-02-03 06:27:00,24.4,15.7,29.91,North,0,5.8,5.8,69,0.00,,SKC,0.00,VWS V14.01,2013-02-03 11:27:00,
2013-02-03 06:28:00,23.4,14.0,29.91,SE,135,0.0,0.0,67,0.00,,SKC,0.00,VWS V14.01,2013-02-03 11:28:00,
2013-02-03 06:30:00,23.4,14.0,29.88,SE,135,0.0,0.0,67,0.00,,SKC,0.00,VWS V14.01,2013-02-03 11:30:00,
2013-02-03 06:32:00,24.4,15.7,29.91,North,0,5.8,5.8,69,0.00,,SKC,0.00,VWS V14.01,2013-02-03 11:32:00,
2013-02-03 06:34:00,23.2,13.9,29.88,SE,135,0.0,0.0,67,0.00,,SKC,0.00,VWS V14.01,2013-02-03 11:34:00,
2013-02-03 06:36:00,23.2,13.9,29.88,East,90,1.6,1.6,67,0.00,,SKC,0.00,VWS V14.01,2013-02-03 11:36:00,
2013-02-03 06:37:00,24.3,15.2,29.91,North,0,5.8,5.8,68,0.00,,SKC,0.00,VWS V14.01,2013-02-03 11:37:00,
2013-02-03 06:38:00,23.4,14.0,29.88,East,90,1.6,1.6,67,0.00,,SKC,0.00,VWS V14.01,2013-02-03 11:38:00,
2013-02-03 06:40:00,23.2,13.9,29.88,East,90,1.6,1.6,67,0.00,,SKC,0.00,VWS V14.01,2013-02-03 11:40:00,
2013-02-03 06:42:00,23.2,13.9,29.88,ESE,112,0.0,1.6,67,0.00,,SKC,0.00,VWS V14.01,2013-02-03 11:42:00,
2013-02-03 06:43:00,23.9,14.9,29.91,North,0,5.8,5.8,68,0.00,,SKC,0.00,VWS V14.01,2013-02-03 11:43:00,
2013-02-03 06:44:00,23.4,14.0,29.91,ESE,112,0.0,0.0,67,0.00,,SKC,0.00,VWS V14.01,2013-02-03 11:44:00,
2013-02-03 06:46:00,23.4,14.4,29.91,ESE,112,0.0,0.0,68,0.00,,SKC,0.00,VWS V14.01,2013-02-03 11:46:00,
2013-02-03 06:48:00,23.7,14.7,29.91,North,0,5.8,5.8,68,0.00,,SKC,0.00,VWS V14.01,2013-02-03 11:48:00,
2013-02-03 06:50:00,23.4,14.4,29.91,ESE,112,0.0,0.0,68,0.00,,SKC,0.00,VWS V14.01,2013-02-03 11:50:00,
2013-02-03 06:52:00,23.4,14.4,29.91,ESE,112,0.0,0.0,68,0.00,,SKC,0.00,VWS V14.01,2013-02-03 11:52:00,
2013-02-03 06:53:00,23.5,14.6,29.91,North,0,5.8,5.8,68,0.00,,SKC,0.00,VWS V14.01,2013-02-03 11:53:00,
2013-02-03 06:54:00,23.4,14.4,29.91,ESE,112,0.0,0.0,68,0.00,,SKC,0.00,VWS V14.01,2013-02-03 11:54:00,
2013-02-03 06:56:00,23.4,14.4,29.91,ESE,112,0.0,0.0,68,0.00,,SKC,0.00,VWS V14.01,2013-02-03 11:56:00,
2013-02-03 06:58:00,23.5,14.2,29.91,SE,135,0.0,0.0,67,0.00,,SKC,0.00,VWS V14.01,2013-02-03 11:58:00,
2013-02-03 07:00:00,23.5,14.6,29.91,ESE,112,0.0,0.0,68,0.00,,SKC,0.00,VWS V14.01,2013-02-03 12:00:00,
2013-02-03 07:02:00,23.5,14.6,29.91,ESE,112,0.0,0.0,68,0.00,,SKC,0.00,VWS V14.01,2013-02-03 12:02:00,
2013-02-03 07:03:00,23.5,14.6,29.88,SE,135,0.0,0.0,68,0.00,,SKC,0.00,VWS V14.01,2013-02-03 12:03:00,
2013-02-03 07:04:00,23.5,14.6,29.91,ESE,112,0.0,0.0,68,0.00,,SKC,0.00,VWS V14.01,2013-02-03 12:04:00,
2013-02-03 07:06:00,23.5,14.6,29.91,ESE,112,0.0,0.0,68,0.00,,SKC,0.00,VWS V14.01,2013-02-03 12:06:00,
2013-02-03 07:08:00,23.4,14.4,29.88,SE,135,0.0,0.0,68,0.00,,SKC,0.00,VWS V14.01,2013-02-03 12:08:00,
2013-02-03 07:10:00,23.5,14.6,29.91,East,90,1.1,1.1,68,0.00,,SKC,0.00,VWS V14.01,2013-02-03 12:10:00,
2013-02-03 07:12:00,23.7,14.7,29.91,East,90,1.1,1.1,68,0.00,,SKC,0.00,VWS V14.01,2013-02-03 12:12:00,
2013-02-03 07:13:00,23.4,14.4,29.91,SE,135,0.0,0.0,68,0.00,,SKC,0.00,VWS V14.01,2013-02-03 12:13:00,
2013-02-03 07:14:00,23.7,14.7,29.91,East,90,1.1,1.1,68,0.00,,SKC,0.00,VWS V14.01,2013-02-03 12:14:00,
2013-02-03 07:16:00,23.9,14.9,29.91,East,90,1.1,1.1,68,0.00,,SKC,0.00,VWS V14.01,2013-02-03 12:16:00,
2013-02-03 07:18:00,23.4,14.0,29.91,SE,135,0.0,0.0,67,0.00,,SKC,0.00,VWS V14.01,2013-02-03 12:18:00,
2013-02-03 07:20:00,24.1,15.4,29.91,NNE,22,2.5,2.5,69,0.00,,SKC,0.00,VWS V14.01,2013-02-03 12:20:00,
2013-02-03 07:22:00,24.1,15.4,29.91,ENE,68,1.3,2.5,69,0.00,,SKC,0.00,VWS V14.01,2013-02-03 12:22:00,
2013-02-03 07:23:00,23.4,14.0,29.91,SE,135,0.0,0.0,67,0.00,,SKC,0.00,VWS V14.01,2013-02-03 12:23:00,
2013-02-03 07:24:00,24.1,15.4,29.91,ENE,68,0.0,1.3,69,0.00,,SKC,0.00,VWS V14.01,2013-02-03 12:24:00,
2013-02-03 07:26:00,24.3,15.6,29.91,ENE,68,0.0,0.0,69,0.00,,SKC,0.00,VWS V14.01,2013-02-03 12:26:00,
2013-02-03 07:28:00,23.4,14.0,29.88,SE,135,0.0,0.0,67,0.00,,SKC,0.00,VWS V14.01,2013-02-03 12:28:00,
2013-02-03 07:30:00,24.4,15.7,29.91,ENE,68,0.0,0.0,69,0.00,,SKC,0.00,VWS V14.01,2013-02-03 12:30:00,
2013-02-03 07:32:00,24.4,15.7,29.91,ENE,68,0.0,0.0,69,0.00,,SKC,0.00,VWS V14.01,2013-02-03 12:32:00,
2013-02-03 07:33:00,23.2,13.9,29.88,SE,135,0.0,0.0,67,0.00,,SKC,0.00,VWS V14.01,2013-02-03 12:33:00,
2013-02-03 07:34:00,24.6,15.9,29.91,ENE,68,0.0,0.0,69,0.00,,SKC,0.00,VWS V14.01,2013-02-03 12:34:00,
2013-02-03 07:36:00,24.8,16.1,29.91,ENE,68,0.0,0.0,69,0.00,,SKC,0.00,VWS V14.01,2013-02-03 12:36:00,
2013-02-03 07:38:00,23.4,14.0,29.88,East,90,1.6,1.6,67,0.00,,SKC,0.00,VWS V14.01,2013-02-03 12:38:00,
2013-02-03 07:40:00,25.2,16.4,29.91,ENE,68,0.0,0.0,69,0.00,,SKC,0.00,VWS V14.01,2013-02-03 12:40:00,
2013-02-03 07:42:00,25.2,16.4,29.91,ENE,68,0.0,0.0,69,0.00,,SKC,0.00,VWS V14.01,2013-02-03 12:42:00,
2013-02-03 07:43:00,23.4,14.0,29.91,ESE,112,0.0,0.0,67,0.00,,SKC,0.00,VWS V14.01,2013-02-03 12:43:00,
2013-02-03 07:44:00,25.3,16.6,29.91,ENE,68,0.0,0.0,69,0.00,,SKC,0.00,VWS V14.01,2013-02-03 12:44:00,
2013-02-03 07:46:00,25.3,16.6,29.91,NE,45,1.3,1.3,69,0.00,,SKC,0.00,VWS V14.01,2013-02-03 12:46:00,
2013-02-03 07:48:00,23.4,14.0,29.91,ESE,112,0.0,0.0,67,0.00,,SKC,0.00,VWS V14.01,2013-02-03 12:48:00,
2013-02-03 07:50:00,25.5,16.4,29.91,SE,135,1.6,1.6,68,0.00,,SKC,0.00,VWS V14.01,2013-02-03 12:50:00,
2013-02-03 07:52:00,25.9,16.8,29.91,ENE,68,2.0,2.0,68,0.00,,SKC,0.00,VWS V14.01,2013-02-03 12:52:00,
2013-02-03 07:53:00,23.4,14.4,29.91,ESE,112,0.0,0.0,68,0.00,,SKC,0.00,VWS V14.01,2013-02-03 12:53:00,
2013-02-03 07:54:00,26.1,17.0,29.91,ENE,68,2.0,2.0,68,0.00,,SKC,0.00,VWS V14.01,2013-02-03 12:54:00,
2013-02-03 07:56:00,26.1,17.0,29.91,ENE,68,2.0,2.0,68,0.00,,SKC,0.00,VWS V14.01,2013-02-03 12:56:00,
2013-02-03 07:58:00,23.5,14.6,29.91,ESE,112,0.0,0.0,68,0.00,,SKC,0.00,VWS V14.01,2013-02-03 12:58:00,
2013-02-03 08:00:00,26.4,17.0,29.91,ENE,68,2.0,2.0,67,0.00,,SKC,0.00,VWS V14.01,2013-02-03 13:00:00,
2013-02-03 08:02:00,26.6,17.5,29.91,ENE,68,2.0,2.0,68,0.00,,SKC,0.00,VWS V14.01,2013-02-03 13:02:00,
2013-02-03 08:03:00,23.5,14.6,29.91,ESE,112,0.0,0.0,68,0.00,,SKC,0.00,VWS V14.01,2013-02-03 13:03:00,
2013-02-03 08:04:00,26.8,17.3,29.91,ENE,68,2.0,2.0,67,0.00,,SKC,0.00,VWS V14.01,2013-02-03 13:04:00,
2013-02-03 08:06:00,27.0,17.1,29.91,ENE,68,2.0,2.0,66,0.00,,SKC,0.00,VWS V14.01,2013-02-03 13:06:00,
2013-02-03 08:08:00,23.5,14.6,29.91,East,90,1.1,1.1,68,0.00,,SKC,0.00,VWS V14.01,2013-02-03 13:08:00,
2013-02-03 08:10:00,27.1,17.3,29.91,NE,45,2.7,2.7,66,0.00,,SKC,0.00,VWS V14.01,2013-02-03 13:10:00,
2013-02-03 08:12:00,27.3,17.5,29.91,NE,45,2.7,2.7,66,0.00,,SKC,0.00,VWS V14.01,2013-02-03 13:12:00,
2013-02-03 08:13:00,23.7,14.7,29.91,East,90,1.1,1.1,68,0.00,,SKC,0.00,VWS V14.01,2013-02-03 13:13:00,
2013-02-03 08:14:00,27.5,17.6,29.91,NE,45,2.7,2.7,66,0.00,,SKC,0.00,VWS V14.01,2013-02-03 13:14:00,
2013-02-03 08:16:00,27.7,17.5,29.91,NE,45,2.7,2.7,65,0.00,,SKC,0.00,VWS V14.01,2013-02-03 13:16:00,
2013-02-03 08:18:00,23.9,15.2,29.91,NNE,22,2.5,2.5,69,0.00,,SKC,0.00,VWS V14.01,2013-02-03 13:18:00,
2013-02-03 08:20:00,27.7,17.1,29.91,East,90,1.6,2.7,64,0.00,,SKC,0.00,VWS V14.01,2013-02-03 13:20:00,
2013-02-03 08:22:00,27.9,17.3,29.91,East,90,1.6,1.6,64,0.00,,SKC,0.00,VWS V14.01,2013-02-03 13:22:00,
2013-02-03 08:23:00,24.1,15.4,29.91,ENE,68,0.0,1.3,69,0.00,,SKC,0.00,VWS V14.01,2013-02-03 13:23:00,
2013-02-03 08:24:00,27.9,16.9,29.91,East,90,1.6,1.6,63,0.00,,SKC,0.00,VWS V14.01,2013-02-03 13:24:00,
2013-02-03 08:26:00,27.9,16.9,29.91,East,90,1.6,1.6,63,0.00,,SKC,0.00,VWS V14.01,2013-02-03 13:26:00,
2013-02-03 08:28:00,24.4,15.7,29.91,ENE,68,0.0,0.0,69,0.00,,SKC,0.00,VWS V14.01,2013-02-03 13:28:00,
2013-02-03 08:30:00,27.9,16.5,29.88,ESE,112,3.1,3.1,62,0.00,,SKC,0.00,VWS V14.01,2013-02-03 13:30:00,
2013-02-03 08:32:00,27.9,16.5,29.88,ESE,112,3.1,3.1,62,0.00,,SKC,0.00,VWS V14.01,2013-02-03 13:32:00,
2013-02-03 08:33:00,24.6,15.9,29.91,ENE,68,0.0,0.0,69,0.00,,SKC,0.00,VWS V14.01,2013-02-03 13:33:00,
2013-02-03 08:34:00,27.9,16.5,29.88,ESE,112,3.1,3.1,62,0.00,,SKC,0.00,VWS V14.01,2013-02-03 13:34:00,
2013-02-03 08:36:00,27.9,16.5,29.88,East,90,3.4,3.4,62,0.00,,SKC,0.00,VWS V14.01,2013-02-03 13:36:00,
2013-02-03 08:38:00,25.0,16.3,29.91,ENE,68,0.0,0.0,69,0.00,,SKC,0.00,VWS V14.01,2013-02-03 13:38:00,
2013-02-03 08:40:00,27.9,16.5,29.88,NE,45,5.4,5.4,62,0.00,,SKC,0.00,VWS V14.01,2013-02-03 13:40:00,
2013-02-03 08:42:00,27.9,16.5,29.88,NE,45,1.6,1.6,62,0.00,,SKC,0.00,VWS V14.01,2013-02-03 13:42:00,
2013-02-03 08:43:00,25.3,16.6,29.91,ENE,68,0.0,0.0,69,0.00,,SKC,0.00,VWS V14.01,2013-02-03 13:43:00,
2013-02-03 08:44:00,28.0,16.7,29.88,NE,45,1.6,1.6,62,0.00,,SKC,0.00,VWS V14.01,2013-02-03 13:44:00,
2013-02-03 08:46:00,28.0,16.7,29.88,NE,45,1.6,1.6,62,0.00,,SKC,0.00,VWS V14.01,2013-02-03 13:46:00,
2013-02-03 08:48:00,25.5,16.4,29.91,SE,135,1.6,1.6,68,0.00,,SKC,0.00,VWS V14.01,2013-02-03 13:48:00,
2013-02-03 08:50:00,28.0,16.7,29.88,NE,45,1.6,1.6,62,0.00,,SKC,0.00,VWS V14.01,2013-02-03 13:50:00,
2013-02-03 08:52:00,28.0,16.3,29.88,NE,45,1.6,1.6,61,0.00,,SKC,0.00,VWS V14.01,2013-02-03 13:52:00,
2013-02-03 08:53:00,26.1,17.0,29.91,ENE,68,2.0,2.0,68,0.00,,SKC,0.00,VWS V14.01,2013-02-03 13:53:00,
2013-02-03 08:54:00,28.0,16.3,29.88,NE,45,1.6,1.6,61,0.00,,SKC,0.00,VWS V14.01,2013-02-03 13:54:00,
2013-02-03 08:56:00,28.2,16.5,29.88,NE,45,1.6,1.6,61,0.00,,SKC,0.00,VWS V14.01,2013-02-03 13:56:00,
2013-02-03 08:58:00,26.4,17.0,29.91,ENE,68,2.0,2.0,67,0.00,,SKC,0.00,VWS V14.01,2013-02-03 13:58:00,
2013-02-03 09:00:00,28.4,17.1,29.85,NE,45,4.3,4.3,62,0.00,,SKC,0.00,VWS V14.01,2013-02-03 14:00:00,
2013-02-03 09:02:00,28.6,17.2,29.85,NE,45,4.3,4.3,62,0.00,,SKC,0.00,VWS V14.01,2013-02-03 14:02:00,
2013-02-03 09:04:00,26.8,17.3,29.91,ENE,68,2.0,2.0,67,0.00,,SKC,0.00,VWS V14.01,2013-02-03 14:04:00,
2013-02-03 09:06:00,28.8,17.4,29.85,NNW,338,4.3,4.3,62,0.00,,SKC,0.00,VWS V14.01,2013-02-03 14:06:00,
2013-02-03 09:08:00,28.8,17.0,29.85,ENE,68,2.5,4.3,61,0.00,,SKC,0.00,VWS V14.01,2013-02-03 14:08:00,
2013-02-03 09:09:00,27.0,17.1,29.91,NE,45,2.7,2.7,66,0.00,,SKC,0.00,VWS V14.01,2013-02-03 14:09:00,
2013-02-03 09:10:00,28.8,17.0,29.85,ENE,68,2.5,2.5,61,0.00,,SKC,0.00,VWS V14.01,2013-02-03 14:10:00,
2013-02-03 09:12:00,28.8,17.0,29.85,ENE,68,2.5,2.5,61,0.00,,SKC,0.00,VWS V14.01,2013-02-03 14:12:00,
2013-02-03 09:14:00,27.5,17.6,29.91,NE,45,2.7,2.7,66,0.00,,SKC,0.00,VWS V14.01,2013-02-03 14:14:00,
2013-02-03 09:16:00,28.9,17.2,29.85,ENE,68,2.5,2.5,61,0.00,,SKC,0.00,VWS V14.01,2013-02-03 14:16:00,
2013-02-03 09:18:00,28.9,17.2,29.85,NE,45,3.4,3.4,61,0.00,,SKC,0.00,VWS V14.01,2013-02-03 14:18:00,
2013-02-03 09:19:00,27.7,17.1,29.91,East,90,1.6,2.7,64,0.00,,SKC,0.00,VWS V14.01,2013-02-03 14:19:00,
2013-02-03 09:20:00,28.9,16.8,29.85,NE,45,3.4,3.4,60,0.00,,SKC,0.00,VWS V14.01,2013-02-03 14:20:00,
2013-02-03 09:22:00,28.9,16.8,29.85,NE,45,3.4,3.4,60,0.00,,SKC,0.00,VWS V14.01,2013-02-03 14:22:00,
2013-02-03 09:24:00,27.9,16.9,29.91,East,90,1.6,1.6,63,0.00,,SKC,0.00,VWS V14.01,2013-02-03 14:24:00,
2013-02-03 09:26:00,29.1,17.0,29.85,NE,45,3.4,3.4,60,0.00,,SKC,0.00,VWS V14.01,2013-02-03 14:26:00,
2013-02-03 09:28:00,29.1,17.0,29.85,NE,45,3.4,3.4,60,0.00,,SKC,0.00,VWS V14.01,2013-02-03 14:28:00,
2013-02-03 09:29:00,27.9,16.5,29.88,ESE,112,3.1,3.1,62,0.00,,SKC,0.00,VWS V14.01,2013-02-03 14:29:00,
2013-02-03 09:30:00,29.3,17.1,29.82,NE,45,3.4,3.4,60,0.00,,SKC,0.00,VWS V14.01,2013-02-03 14:30:00,
2013-02-03 09:32:00,29.3,17.1,29.82,NE,45,3.4,3.4,60,0.00,,SKC,0.00,VWS V14.01,2013-02-03 14:32:00,
2013-02-03 09:34:00,27.9,16.5,29.88,ESE,112,3.1,3.1,62,0.00,,SKC,0.00,VWS V14.01,2013-02-03 14:34:00,
2013-02-03 09:36:00,29.5,17.3,29.82,NNE,22,2.9,3.4,60,0.00,,SKC,0.00,VWS V14.01,2013-02-03 14:36:00,
2013-02-03 09:38:00,29.5,17.3,29.82,North,0,1.3,2.9,60,0.00,,SKC,0.00,VWS V14.01,2013-02-03 14:38:00,
2013-02-03 09:39:00,27.9,16.5,29.88,NE,45,5.4,5.4,62,0.00,,SKC,0.00,VWS V14.01,2013-02-03 14:39:00,
2013-02-03 09:40:00,29.5,17.3,29.82,North,0,1.3,1.3,60,0.00,,SKC,0.00,VWS V14.01,2013-02-03 14:40:00,
2013-02-03 09:42:00,29.5,17.3,29.82,North,0,1.3,1.3,60,0.00,,SKC,0.00,VWS V14.01,2013-02-03 14:42:00,
2013-02-03 09:44:00,28.0,16.7,29.88,NE,45,1.6,1.6,62,0.00,,SKC,0.00,VWS V14.01,2013-02-03 14:44:00,
2013-02-03 09:46:00,29.5,17.7,29.85,North,0,1.3,1.3,61,0.00,,SKC,0.00,VWS V14.01,2013-02-03 14:46:00,
2013-02-03 09:48:00,29.5,17.7,29.85,North,0,1.3,1.3,61,0.00,,SKC,0.00,VWS V14.01,2013-02-03 14:48:00,
2013-02-03 09:49:00,28.0,16.7,29.88,NE,45,1.6,1.6,62,0.00,,SKC,0.00,VWS V14.01,2013-02-03 14:49:00,
2013-02-03 09:50:00,29.5,17.7,29.85,North,0,1.3,1.3,61,0.00,,SKC,0.00,VWS V14.01,2013-02-03 14:50:00,
2013-02-03 09:52:00,29.5,17.7,29.85,NW,315,8.1,8.1,61,0.00,,SKC,0.00,VWS V14.01,2013-02-03 14:52:00,
2013-02-03 09:54:00,28.0,16.3,29.88,NE,45,1.6,1.6,61,0.00,,SKC,0.00,VWS V14.01,2013-02-03 14:54:00,
2013-02-03 09:56:00,29.5,17.7,29.85,North,0,5.4,8.1,61,0.00,,SKC,0.00,VWS V14.01,2013-02-03 14:56:00,
2013-02-03 09:58:00,29.3,17.5,29.85,North,0,6.0,6.0,61,0.00,,SKC,0.00,VWS V14.01,2013-02-03 14:58:00,
2013-02-03 09:59:00,28.4,16.7,29.85,NE,45,4.3,4.3,61,0.00,,SKC,0.00,VWS V14.01,2013-02-03 14:59:00,
2013-02-03 10:00:00,29.3,17.5,29.85,North,0,6.0,6.0,61,0.00,,SKC,0.00,VWS V14.01,2013-02-03 15:00:00,
2013-02-03 10:02:00,29.5,17.7,29.85,North,0,6.0,6.0,61,0.00,,SKC,0.00,VWS V14.01,2013-02-03 15:02:00,
2013-02-03 10:04:00,28.8,17.4,29.85,NE,45,4.3,4.3,62,0.00,,SKC,0.00,VWS V14.01,2013-02-03 15:04:00,
2013-02-03 10:06:00,29.5,18.1,29.85,NNE,22,5.6,6.0,62,0.00,,SKC,0.00,VWS V14.01,2013-02-03 15:06:00,
2013-02-03 10:08:00,29.5,18.1,29.85,NNE,22,5.6,5.6,62,0.00,,SKC,0.00,VWS V14.01,2013-02-03 15:08:00,
2013-02-03 10:09:00,28.8,17.0,29.85,ENE,68,2.5,4.3,61,0.00,,SKC,0.00,VWS V14.01,2013-02-03 15:09:00,
2013-02-03 10:10:00,29.5,18.1,29.85,North,0,8.7,8.7,62,0.00,,SKC,0.00,VWS V14.01,2013-02-03 15:10:00,
2013-02-03 10:12:00,29.5,18.1,29.85,North,0,8.7,8.7,62,0.00,,SKC,0.00,VWS V14.01,2013-02-03 15:12:00,
2013-02-03 10:14:00,28.8,17.0,29.85,ENE,68,2.5,2.5,61,0.00,,SKC,0.00,VWS V14.01,2013-02-03 15:14:00,
2013-02-03 10:16:00,29.7,19.0,29.85,North,0,8.7,8.7,64,0.00,,SKC,0.00,VWS V14.01,2013-02-03 15:16:00,
2013-02-03 10:18:00,29.7,19.0,29.85,NNW,338,8.5,8.7,64,0.00,,SKC,0.00,VWS V14.01,2013-02-03 15:18:00,
2013-02-03 10:19:00,28.9,16.8,29.85,NE,45,3.4,3.4,60,0.00,,SKC,0.00,VWS V14.01,2013-02-03 15:19:00,
2013-02-03 10:20:00,29.7,19.0,29.85,NNE,22,5.6,8.5,64,0.00,,SKC,0.00,VWS V14.01,2013-02-03 15:20:00,
2013-02-03 10:22:00,29.8,19.2,29.85,NNE,22,5.6,5.6,64,0.00,,SKC,0.00,VWS V14.01,2013-02-03 15:22:00,
2013-02-03 10:24:00,29.1,17.4,29.85,NE,45,3.4,3.4,61,0.00,,SKC,0.00,VWS V14.01,2013-02-03 15:24:00,
2013-02-03 10:26:00,29.8,19.2,29.85,NNE,22,8.7,8.7,64,0.00,,SKC,0.00,VWS V14.01,2013-02-03 15:26:00,
2013-02-03 10:28:00,29.8,19.2,29.85,NNE,22,8.7,8.7,64,0.00,,SKC,0.00,VWS V14.01,2013-02-03 15:28:00,
2013-02-03 10:29:00,29.3,17.1,29.82,NE,45,3.4,3.4,60,0.00,,SKC,0.00,VWS V14.01,2013-02-03 15:29:00,
2013-02-03 10:30:00,30.0,19.7,29.82,NNE,22,8.7,8.7,65,0.00,,SKC,0.00,VWS V14.01,2013-02-03 15:30:00,
2013-02-03 10:32:00,30.0,19.7,29.82,NNE,22,8.7,8.7,65,0.00,,SKC,0.00,VWS V14.01,2013-02-03 15:32:00,
2013-02-03 10:34:00,29.3,17.1,29.82,NE,45,3.4,3.4,60,0.00,,SKC,0.00,VWS V14.01,2013-02-03 15:34:00,
2013-02-03 10:36:00,29.5,18.8,29.82,NNE,22,8.7,8.7,64,0.00,,SKC,0.00,VWS V14.01,2013-02-03 15:36:00,
2013-02-03 10:38:00,29.3,18.6,29.82,NNE,22,8.7,8.7,64,0.00,,SKC,0.00,VWS V14.01,2013-02-03 15:38:00,
2013-02-03 10:39:00,29.5,17.3,29.82,North,0,1.3,1.3,60,0.00,,SKC,0.00,VWS V14.01,2013-02-03 15:39:00,
2013-02-03 10:40:00,29.3,18.6,29.82,NNE,22,8.7,8.7,64,0.00,,SKC,0.00,VWS V14.01,2013-02-03 15:40:00,
2013-02-03 10:42:00,29.3,19.0,29.82,NNE,22,8.7,8.7,65,0.00,,SKC,0.00,VWS V14.01,2013-02-03 15:42:00,
2013-02-03 10:44:00,29.5,17.3,29.85,North,0,1.3,1.3,60,0.00,,SKC,0.00,VWS V14.01,2013-02-03 15:44:00,
2013-02-03 10:46:00,29.5,19.2,29.82,NNE,22,8.7,8.7,65,0.00,,SKC,0.00,VWS V14.01,2013-02-03 15:46:00,
2013-02-03 10:48:00,29.5,19.2,29.82,NNE,22,8.7,8.7,65,0.00,,SKC,0.00,VWS V14.01,2013-02-03 15:48:00,
2013-02-03 10:49:00,29.5,17.7,29.85,North,0,1.3,1.3,61,0.00,,SKC,0.00,VWS V14.01,2013-02-03 15:49:00,
2013-02-03 10:50:00,29.7,19.4,29.82,NNW,338,7.4,8.7,65,0.00,,SKC,0.00,VWS V14.01,2013-02-03 15:50:00,
2013-02-03 10:52:00,29.7,19.4,29.82,NNW,338,7.4,7.4,65,0.00,,SKC,0.00,VWS V14.01,2013-02-03 15:52:00,
2013-02-03 10:54:00,29.5,17.7,29.85,NW,315,8.1,8.1,61,0.00,,SKC,0.00,VWS V14.01,2013-02-03 15:54:00,
2013-02-03 10:56:00,29.7,19.0,29.82,NNW,338,7.8,7.8,64,0.00,,SKC,0.00,VWS V14.01,2013-02-03 15:56:00,
2013-02-03 10:58:00,29.7,19.4,29.82,NNW,338,7.8,7.8,65,0.00,,SKC,0.00,VWS V14.01,2013-02-03 15:58:00,
2013-02-03 10:59:00,29.3,17.5,29.85,North,0,6.0,6.0,61,0.00,,SKC,0.00,VWS V14.01,2013-02-03 15:59:00,
2013-02-03 11:00:00,29.5,18.8,29.80,NNW,338,7.8,7.8,64,0.00,,SKC,0.00,VWS V14.01,2013-02-03 16:00:00,
2013-02-03 11:02:00,29.5,18.8,29.80,NNW,338,7.8,7.8,64,0.00,,SKC,0.00,VWS V14.01,2013-02-03 16:02:00,
2013-02-03 11:04:00,29.5,18.1,29.85,North,0,6.0,6.0,62,0.00,,SKC,0.00,VWS V14.01,2013-02-03 16:04:00,
2013-02-03 11:06:00,29.5,18.5,29.80,NNW,338,7.8,7.8,63,0.00,,SKC,0.00,VWS V14.01,2013-02-03 16:06:00,
2013-02-03 11:08:00,29.5,18.8,29.80,NNW,338,7.6,7.8,64,0.00,,SKC,0.00,VWS V14.01,2013-02-03 16:08:00,
2013-02-03 11:09:00,29.5,18.1,29.85,NNE,22,5.6,5.6,62,0.00,,SKC,0.00,VWS V14.01,2013-02-03 16:09:00,
2013-02-03 11:10:00,29.5,18.8,29.80,NW,315,6.5,7.6,64,0.00,,SKC,0.00,VWS V14.01,2013-02-03 16:10:00,
2013-02-03 11:12:00,29.5,18.8,29.80,NW,315,7.6,8.1,64,0.00,,SKC,0.00,VWS V14.01,2013-02-03 16:12:00,
2013-02-03 11:14:00,29.5,18.5,29.85,North,0,8.7,8.7,63,0.00,,SKC,0.00,VWS V14.01,2013-02-03 16:14:00,
2013-02-03 11:16:00,29.5,18.5,29.80,NW,315,7.6,7.6,63,0.00,,SKC,0.00,VWS V14.01,2013-02-03 16:16:00,
2013-02-03 11:18:00,29.5,18.5,29.80,NW,315,7.6,7.6,63,0.00,,SKC,0.00,VWS V14.01,2013-02-03 16:18:00,
2013-02-03 11:19:00,29.7,19.0,29.85,NNE,22,5.6,8.5,64,0.00,,SKC,0.00,VWS V14.01,2013-02-03 16:19:00,
2013-02-03 11:20:00,29.5,18.5,29.80,NW,315,7.6,7.6,63,0.00,,SKC,0.00,VWS V14.01,2013-02-03 16:20:00,
2013-02-03 11:22:00,29.3,18.3,29.80,NW,315,7.6,7.6,63,0.00,,SKC,0.00,VWS V14.01,2013-02-03 16:22:00,
2013-02-03 11:24:00,29.8,19.2,29.85,NNE,22,5.6,5.6,64,0.00,,SKC,0.00,VWS V14.01,2013-02-03 16:24:00,
2013-02-03 11:26:00,29.3,17.9,29.80,NW,315,7.6,7.6,62,0.00,,SKC,0.00,VWS V14.01,2013-02-03 16:26:00,
2013-02-03 11:28:00,29.3,17.9,29.80,NW,315,7.6,7.6,62,0.00,,SKC,0.00,VWS V14.01,2013-02-03 16:28:00,
2013-02-03 11:29:00,29.8,19.2,29.82,NNE,22,8.7,8.7,64,0.00,,SKC,0.00,VWS V14.01,2013-02-03 16:29:00,
2013-02-03 11:30:00,29.1,17.7,29.80,NW,315,7.6,7.6,62,0.00,,SKC,0.00,VWS V14.01,2013-02-03 16:30:00,
2013-02-03 11:32:00,29.3,17.9,29.80,NW,315,7.6,7.6,62,0.00,,SKC,0.00,VWS V14.01,2013-02-03 16:32:00,
2013-02-03 11:34:00,29.5,18.8,29.82,NNE,22,8.7,8.7,64,0.00,,SKC,0.00,VWS V14.01,2013-02-03 16:34:00,
2013-02-03 11:36:00,29.5,17.7,29.80,NW,315,7.6,7.6,61,0.00,,SKC,0.00,VWS V14.01,2013-02-03 16:36:00,
2013-02-03 11:38:00,29.5,18.1,29.80,NW,315,7.6,7.6,62,0.00,,SKC,0.00,VWS V14.01,2013-02-03 16:38:00,
2013-02-03 11:39:00,29.3,18.6,29.82,NNE,22,8.7,8.7,64,0.00,,SKC,0.00,VWS V14.01,2013-02-03 16:39:00,
2013-02-03 11:40:00,29.7,18.2,29.80,NW,315,7.6,7.6,62,0.00,,SKC,0.00,VWS V14.01,2013-02-03 16:40:00,
2013-02-03 11:42:00,29.8,18.4,29.80,NNW,338,4.3,7.6,62,0.00,,SKC,0.00,VWS V14.01,2013-02-03 16:42:00,
2013-02-03 11:44:00,29.5,19.2,29.82,NNE,22,8.7,8.7,65,0.00,,SKC,0.00,VWS V14.01,2013-02-03 16:44:00,
2013-02-03 11:46:00,29.7,17.5,29.80,NNW,338,4.3,4.3,60,0.00,,SKC,0.00,VWS V14.01,2013-02-03 16:46:00,
2013-02-03 11:48:00,29.7,17.5,29.80,NE,45,9.0,9.0,60,0.00,,SKC,0.00,VWS V14.01,2013-02-03 16:48:00,
2013-02-03 11:49:00,29.7,19.4,29.82,NNW,338,7.4,8.7,65,0.00,,SKC,0.00,VWS V14.01,2013-02-03 16:49:00,
2013-02-03 11:50:00,29.7,17.5,29.80,North,0,3.6,9.0,60,0.00,,SKC,0.00,VWS V14.01,2013-02-03 16:50:00,
2013-02-03 11:52:00,29.7,17.5,29.80,North,0,3.6,3.6,60,0.00,,SKC,0.00,VWS V14.01,2013-02-03 16:52:00,
2013-02-03 11:54:00,29.7,19.4,29.82,NNW,338,7.4,7.4,65,0.00,,SKC,0.00,VWS V14.01,2013-02-03 16:54:00,
2013-02-03 11:56:00,29.7,17.1,29.80,North,0,3.6,3.6,59,0.00,,SKC,0.00,VWS V14.01,2013-02-03 16:56:00,
2013-02-03 11:58:00,29.7,17.1,29.80,North,0,3.6,3.6,59,0.00,,SKC,0.00,VWS V14.01,2013-02-03 16:58:00,
2013-02-03 11:59:00,29.5,18.8,29.79,NNW,338,7.8,7.8,64,0.00,,SKC,0.00,VWS V14.01,2013-02-03 16:59:00,
2013-02-03 12:00:00,29.5,16.5,29.80,North,0,3.6,3.6,58,0.00,,SKC,0.00,VWS V14.01,2013-02-03 17:00:00,
2013-02-03 12:02:00,29.5,16.5,29.80,North,0,3.6,3.6,58,0.00,,SKC,0.00,VWS V14.01,2013-02-03 17:02:00,
2013-02-03 12:04:00,29.5,18.5,29.79,NNW,338,7.8,7.8,63,0.00,,SKC,0.00,VWS V14.01,2013-02-03 17:04:00,
2013-02-03 12:06:00,29.7,16.3,29.80,NNW,338,4.7,5.4,57,0.00,,SKC,0.00,VWS V14.01,2013-02-03 17:06:00,
2013-02-03 12:08:00,29.7,16.3,29.80,North,0,9.0,9.0,57,0.00,,SKC,0.00,VWS V14.01,2013-02-03 17:08:00,
2013-02-03 12:09:00,29.5,18.8,29.79,NW,315,6.5,7.6,64,0.00,,SKC,0.00,VWS V14.01,2013-02-03 17:09:00,
2013-02-03 12:10:00,29.7,16.3,29.80,NNE,22,4.0,9.0,57,0.00,,SKC,0.00,VWS V14.01,2013-02-03 17:10:00,
2013-02-03 12:12:00,29.8,16.5,29.80,North,0,3.1,3.1,57,0.00,,SKC,0.00,VWS V14.01,2013-02-03 17:12:00,
2013-02-03 12:14:00,29.5,18.5,29.79,NW,315,7.6,7.6,63,0.00,,SKC,0.00,VWS V14.01,2013-02-03 17:14:00,
2013-02-03 12:16:00,29.8,16.9,29.80,NNW,338,5.4,5.4,58,0.00,,SKC,0.00,VWS V14.01,2013-02-03 17:16:00,
2013-02-03 12:18:00,30.0,17.0,29.80,NNE,22,2.5,5.4,58,0.00,,SKC,0.00,VWS V14.01,2013-02-03 17:18:00,
2013-02-03 12:19:00,29.5,18.5,29.79,NW,315,7.6,7.6,63,0.00,,SKC,0.00,VWS V14.01,2013-02-03 17:19:00,
2013-02-03 12:20:00,30.0,16.6,29.80,NNW,338,3.4,5.4,57,0.00,,SKC,0.00,VWS V14.01,2013-02-03 17:20:00,
2013-02-03 12:22:00,30.2,16.8,29.80,NNW,338,3.4,3.4,57,0.00,,SKC,0.00,VWS V14.01,2013-02-03 17:22:00,
2013-02-03 12:24:00,29.3,17.9,29.79,NW,315,7.6,7.6,62,0.00,,SKC,0.00,VWS V14.01,2013-02-03 17:24:00,
2013-02-03 12:26:00,30.2,16.4,29.80,North,0,1.3,3.4,56,0.00,,SKC,0.00,VWS V14.01,2013-02-03 17:26:00,
2013-02-03 12:28:00,30.2,16.4,29.80,NNW,338,4.9,4.9,56,0.00,,SKC,0.00,VWS V14.01,2013-02-03 17:28:00,
2013-02-03 12:29:00,29.3,17.9,29.79,NW,315,7.6,7.6,62,0.00,,SKC,0.00,VWS V14.01,2013-02-03 17:29:00,
2013-02-03 12:30:00,30.2,16.4,29.76,NNW,338,4.9,4.9,56,0.00,,SKC,0.00,VWS V14.01,2013-02-03 17:30:00,
2013-02-03 12:32:00,30.2,16.4,29.76,NNW,338,4.9,4.9,56,0.00,,SKC,0.00,VWS V14.01,2013-02-03 17:32:00,
2013-02-03 12:34:00,29.3,17.5,29.79,NW,315,7.6,7.6,61,0.00,,SKC,0.00,VWS V14.01,2013-02-03 17:34:00,
2013-02-03 12:36:00,30.4,16.6,29.76,NW,315,3.6,3.6,56,0.00,,SKC,0.00,VWS V14.01,2013-02-03 17:36:00,
2013-02-03 12:38:00,30.4,16.2,29.76,NW,315,5.4,5.4,55,0.00,,SKC,0.00,VWS V14.01,2013-02-03 17:38:00,
2013-02-03 12:39:00,29.7,18.2,29.79,NW,315,7.6,7.6,62,0.00,,SKC,0.00,VWS V14.01,2013-02-03 17:39:00,
2013-02-03 12:40:00,30.4,16.2,29.76,NW,315,5.4,5.4,55,0.00,,SKC,0.00,VWS V14.01,2013-02-03 17:40:00,
2013-02-03 12:42:00,30.4,16.2,29.76,NW,315,5.4,5.4,55,0.00,,SKC,0.00,VWS V14.01,2013-02-03 17:42:00,
2013-02-03 12:44:00,29.8,18.0,29.79,NNW,338,4.3,4.3,61,0.00,,SKC,0.00,VWS V14.01,2013-02-03 17:44:00,
2013-02-03 12:46:00,30.4,16.2,29.76,NW,315,4.9,5.4,55,0.00,,SKC,0.00,VWS V14.01,2013-02-03 17:46:00,
2013-02-03 12:48:00,30.6,16.3,29.76,NW,315,3.4,4.9,55,0.00,,SKC,0.00,VWS V14.01,2013-02-03 17:48:00,
2013-02-03 12:49:00,29.7,17.5,29.79,North,0,3.6,9.0,60,0.00,,SKC,0.00,VWS V14.01,2013-02-03 17:49:00,
2013-02-03 12:50:00,30.6,16.7,29.76,NW,315,3.4,3.4,56,0.00,,SKC,0.00,VWS V14.01,2013-02-03 17:50:00,
2013-02-03 12:52:00,30.6,16.3,29.76,NW,315,3.4,3.4,55,0.00,,SKC,0.00,VWS V14.01,2013-02-03 17:52:00,
2013-02-03 12:54:00,29.7,17.1,29.79,North,0,3.6,3.6,59,0.00,,SKC,0.00,VWS V14.01,2013-02-03 17:54:00,
2013-02-03 12:56:00,30.4,16.2,29.76,NW,315,3.4,3.4,55,0.00,,SKC,0.00,VWS V14.01,2013-02-03 17:56:00,
2013-02-03 12:58:00,30.4,16.2,29.76,NW,315,3.4,3.4,55,0.00,,SKC,0.00,VWS V14.01,2013-02-03 17:58:00,
2013-02-03 12:59:00,29.7,16.7,29.79,North,0,3.6,3.6,58,0.00,,SKC,0.00,VWS V14.01,2013-02-03 17:59:00,
2013-02-03 13:00:00,30.4,16.2,29.74,NW,315,3.4,3.4,55,0.00,,SKC,0.00,VWS V14.01,2013-02-03 18:00:00,
2013-02-03 13:02:00,30.4,16.2,29.74,NW,315,3.4,3.4,55,0.00,,SKC,0.00,VWS V14.01,2013-02-03 18:02:00,
2013-02-03 13:04:00,29.7,16.7,29.79,NNW,338,4.7,5.4,58,0.00,,SKC,0.00,VWS V14.01,2013-02-03 18:04:00,
2013-02-03 13:06:00,30.4,16.2,29.74,NW,315,3.4,3.4,55,0.00,,SKC,0.00,VWS V14.01,2013-02-03 18:06:00,
2013-02-03 13:08:00,30.4,16.2,29.74,NW,315,3.4,3.4,55,0.00,,SKC,0.00,VWS V14.01,2013-02-03 18:08:00,
2013-02-03 13:09:00,29.7,16.3,29.79,NNE,22,4.0,9.0,57,0.00,,SKC,0.00,VWS V14.01,2013-02-03 18:09:00,
2013-02-03 13:10:00,30.4,16.2,29.74,NW,315,3.4,3.4,55,0.00,,SKC,0.00,VWS V14.01,2013-02-03 18:10:00,
2013-02-03 13:12:00,30.4,16.2,29.74,NW,315,3.4,3.4,55,0.00,,SKC,0.00,VWS V14.01,2013-02-03 18:12:00,
2013-02-03 13:14:00,29.8,16.5,29.79,NNW,338,5.4,5.4,57,0.00,,SKC,0.00,VWS V14.01,2013-02-03 18:14:00,
2013-02-03 13:16:00,30.2,16.0,29.71,North,0,6.0,6.0,55,0.00,,SKC,0.00,VWS V14.01,2013-02-03 18:16:00,
2013-02-03 13:18:00,30.2,16.0,29.71,North,0,6.0,6.0,55,0.00,,SKC,0.00,VWS V14.01,2013-02-03 18:18:00,
2013-02-03 13:19:00,30.0,16.6,29.79,NNW,338,3.4,5.4,57,0.00,,SKC,0.00,VWS V14.01,2013-02-03 18:19:00,
2013-02-03 13:20:00,30.2,16.0,29.71,North,0,6.0,6.0,55,0.00,,SKC,0.00,VWS V14.01,2013-02-03 18:20:00,
2013-02-03 13:22:00,30.2,16.0,29.71,WNW,292,3.4,6.0,55,0.00,,SKC,0.00,VWS V14.01,2013-02-03 18:22:00,
2013-02-03 13:24:00,30.0,16.2,29.79,North,0,1.3,3.4,56,0.00,,SKC,0.00,VWS V14.01,2013-02-03 18:24:00,
2013-02-03 13:26:00,30.2,16.0,29.71,WNW,292,3.4,3.4,55,0.00,,SKC,0.00,VWS V14.01,2013-02-03 18:26:00,
2013-02-03 13:28:00,30.2,16.0,29.71,WNW,292,3.4,3.4,55,0.00,,SKC,0.00,VWS V14.01,2013-02-03 18:28:00,
2013-02-03 13:29:00,30.2,16.4,29.76,NNW,338,4.9,4.9,56,0.00,,SKC,0.00,VWS V14.01,2013-02-03 18:29:00,
2013-02-03 13:30:00,30.2,16.4,29.74,WNW,292,3.4,3.4,56,0.00,,SKC,0.00,VWS V14.01,2013-02-03 18:30:00,
2013-02-03 13:32:00,30.4,16.6,29.74,WNW,292,3.4,3.4,56,0.00,,SKC,0.00,VWS V14.01,2013-02-03 18:32:00,
2013-02-03 13:34:00,30.2,16.4,29.76,NW,315,3.6,4.9,56,0.00,,SKC,0.00,VWS V14.01,2013-02-03 18:34:00,
2013-02-03 13:36:00,30.6,16.7,29.74,WNW,292,3.4,3.4,56,0.00,,SKC,0.00,VWS V14.01,2013-02-03 18:36:00,
2013-02-03 13:38:00,30.6,16.7,29.74,WNW,292,3.4,3.4,56,0.00,,SKC,0.00,VWS V14.01,2013-02-03 18:38:00,
2013-02-03 13:39:00,30.4,16.2,29.76,NW,315,5.4,5.4,55,0.00,,SKC,0.00,VWS V14.01,2013-02-03 18:39:00,
2013-02-03 13:40:00,30.6,16.7,29.74,WNW,292,3.4,3.4,56,0.00,,SKC,0.00,VWS V14.01,2013-02-03 18:40:00,
2013-02-03 13:42:00,30.6,16.7,29.74,WNW,292,3.4,3.4,56,0.00,,SKC,0.00,VWS V14.01,2013-02-03 18:42:00,
2013-02-03 13:44:00,30.4,16.2,29.76,NW,315,5.4,5.4,55,0.00,,SKC,0.00,VWS V14.01,2013-02-03 18:44:00,
2013-02-03 13:46:00,30.7,16.9,29.71,WNW,292,3.4,3.4,56,0.00,,SKC,0.00,VWS V14.01,2013-02-03 18:46:00,
2013-02-03 13:48:00,30.6,16.7,29.71,West,270,3.8,3.8,56,0.00,,SKC,0.00,VWS V14.01,2013-02-03 18:48:00,
2013-02-03 13:49:00,30.6,16.7,29.76,NW,315,3.4,3.4,56,0.00,,SKC,0.00,VWS V14.01,2013-02-03 18:49:00,
2013-02-03 13:50:00,30.6,16.7,29.71,West,270,3.8,3.8,56,0.00,,SKC,0.00,VWS V14.01,2013-02-03 18:50:00,
2013-02-03 13:52:00,30.7,16.9,29.71,West,270,3.8,3.8,56,0.00,,SKC,0.00,VWS V14.01,2013-02-03 18:52:00,
2013-02-03 13:54:00,30.6,16.3,29.76,NW,315,3.4,3.4,55,0.00,,SKC,0.00,VWS V14.01,2013-02-03 18:54:00,
2013-02-03 13:56:00,30.6,16.7,29.71,West,270,3.8,3.8,56,0.00,,SKC,0.00,VWS V14.01,2013-02-03 18:56:00,
2013-02-03 13:58:00,30.6,16.7,29.71,West,270,3.8,3.8,56,0.00,,SKC,0.00,VWS V14.01,2013-02-03 18:58:00,
2013-02-03 13:59:00,30.4,16.2,29.74,NW,315,3.4,3.4,55,0.00,,SKC,0.00,VWS V14.01,2013-02-03 18:59:00,
2013-02-03 14:00:00,30.7,16.9,29.74,West,270,3.8,3.8,56,0.00,,SKC,0.00,VWS V14.01,2013-02-03 19:00:00,
2013-02-03 14:02:00,30.7,16.9,29.74,West,270,3.8,3.8,56,0.00,,SKC,0.00,VWS V14.01,2013-02-03 19:02:00,
2013-02-03 14:04:00,30.4,16.2,29.74,NW,315,3.4,3.4,55,0.00,,SKC,0.00,VWS V14.01,2013-02-03 19:04:00,
2013-02-03 14:06:00,30.9,17.5,29.74,West,270,3.8,3.8,57,0.00,,SKC,0.00,VWS V14.01,2013-02-03 19:06:00,
2013-02-03 14:08:00,30.9,17.5,29.74,West,270,3.8,3.8,57,0.00,,SKC,0.00,VWS V14.01,2013-02-03 19:08:00,
2013-02-03 14:09:00,30.4,16.2,29.74,NW,315,3.4,3.4,55,0.00,,SKC,0.00,VWS V14.01,2013-02-03 19:09:00,
2013-02-03 14:10:00,30.9,17.1,29.74,West,270,3.8,3.8,56,0.00,,SKC,0.00,VWS V14.01,2013-02-03 19:10:00,
2013-02-03 14:12:00,30.9,17.1,29.74,West,270,3.8,3.8,56,0.00,,SKC,0.00,VWS V14.01,2013-02-03 19:12:00,
2013-02-03 14:14:00,30.7,16.5,29.74,West,270,3.8,3.8,55,0.00,,SKC,0.00,VWS V14.01,2013-02-03 19:14:00,
2013-02-03 14:15:00,30.2,16.0,29.71,North,0,6.0,6.0,55,0.00,,SKC,0.00,VWS V14.01,2013-02-03 19:15:00,
2013-02-03 14:16:00,30.7,16.5,29.74,West,270,3.8,3.8,55,0.00,,SKC,0.00,VWS V14.01,2013-02-03 19:16:00,
2013-02-03 14:18:00,30.6,16.3,29.74,West,270,3.8,3.8,55,0.00,,SKC,0.00,VWS V14.01,2013-02-03 19:18:00,
2013-02-03 14:20:00,30.2,16.0,29.71,North,0,6.0,6.0,55,0.00,,SKC,0.00,VWS V14.01,2013-02-03 19:20:00,
2013-02-03 14:22:00,30.6,16.7,29.74,West,270,3.8,3.8,56,0.00,,SKC,0.00,VWS V14.01,2013-02-03 19:22:00,
2013-02-03 14:24:00,30.4,16.6,29.74,West,270,3.8,3.8,56,0.00,,SKC,0.00,VWS V14.01,2013-02-03 19:24:00,
2013-02-03 14:25:00,30.2,16.0,29.71,WNW,292,3.4,3.4,55,0.00,,SKC,0.00,VWS V14.01,2013-02-03 19:25:00,
2013-02-03 14:26:00,30.4,16.6,29.74,West,270,3.8,3.8,56,0.00,,SKC,0.00,VWS V14.01,2013-02-03 19:26:00,
2013-02-03 14:28:00,30.4,16.6,29.74,West,270,3.8,3.8,56,0.00,,SKC,0.00,VWS V14.01,2013-02-03 19:28:00,
2013-02-03 14:30:00,30.2,16.4,29.74,WNW,292,3.4,3.4,56,0.00,,SKC,0.00,VWS V14.01,2013-02-03 19:30:00,
2013-02-03 14:32:00,30.2,16.8,29.74,NW,315,3.6,3.6,57,0.00,,SKC,0.00,VWS V14.01,2013-02-03 19:32:00,
2013-02-03 14:34:00,30.2,16.8,29.74,NW,315,3.6,3.6,57,0.00,,SKC,0.00,VWS V14.01,2013-02-03 19:34:00,
2013-02-03 14:35:00,30.6,16.7,29.74,WNW,292,3.4,3.4,56,0.00,,SKC,0.00,VWS V14.01,2013-02-03 19:35:00,
2013-02-03 14:36:00,30.2,16.8,29.74,NW,315,3.6,3.6,57,0.00,,SKC,0.00,VWS V14.01,2013-02-03 19:36:00,
2013-02-03 14:38:00,30.2,16.4,29.74,NW,315,3.6,3.6,56,0.00,,SKC,0.00,VWS V14.01,2013-02-03 19:38:00,
2013-02-03 14:40:00,30.6,16.7,29.74,WNW,292,3.4,3.4,56,0.00,,SKC,0.00,VWS V14.01,2013-02-03 19:40:00,
2013-02-03 14:42:00,30.2,16.8,29.74,NW,315,4.0,4.7,57,0.00,,SKC,0.00,VWS V14.01,2013-02-03 19:42:00,
2013-02-03 14:44:00,30.2,16.8,29.74,NW,315,3.4,4.0,57,0.00,,SKC,0.00,VWS V14.01,2013-02-03 19:44:00,
2013-02-03 14:45:00,30.6,16.7,29.71,WNW,292,3.4,3.4,56,0.00,,SKC,0.00,VWS V14.01,2013-02-03 19:45:00,
2013-02-03 14:46:00,30.2,16.4,29.74,NW,315,3.4,3.4,56,0.00,,SKC,0.00,VWS V14.01,2013-02-03 19:46:00,
2013-02-03 14:48:00,30.2,16.8,29.74,NW,315,3.4,3.4,57,0.00,,SKC,0.00,VWS V14.01,2013-02-03 19:48:00,
2013-02-03 14:50:00,30.6,16.7,29.71,West,270,3.8,3.8,56,0.00,,SKC,0.00,VWS V14.01,2013-02-03 19:50:00,
2013-02-03 14:52:00,30.2,16.8,29.74,NW,315,6.0,6.0,57,0.00,,SKC,0.00,VWS V14.01,2013-02-03 19:52:00,
2013-02-03 14:54:00,30.2,16.8,29.74,NW,315,6.0,6.0,57,0.00,,SKC,0.00,VWS V14.01,2013-02-03 19:54:00,
2013-02-03 14:55:00,30.7,16.9,29.71,West,270,3.8,3.8,56,0.00,,SKC,0.00,VWS V14.01,2013-02-03 19:55:00,
2013-02-03 14:56:00,30.2,16.8,29.74,NW,315,6.0,6.0,57,0.00,,SKC,0.00,VWS V14.01,2013-02-03 19:56:00,
2013-02-03 14:58:00,30.2,16.8,29.74,NW,315,6.0,6.0,57,0.00,,SKC,0.00,VWS V14.01,2013-02-03 19:58:00,
2013-02-03 15:00:00,30.7,17.3,29.74,West,270,3.8,3.8,57,0.00,,SKC,0.00,VWS V14.01,2013-02-03 20:00:00,
2013-02-03 15:02:00,30.4,17.0,29.71,NW,315,5.8,6.0,57,0.00,,SKC,0.00,VWS V14.01,2013-02-03 20:02:00,
2013-02-03 15:04:00,30.4,17.0,29.71,NW,315,5.8,5.8,57,0.00,,SKC,0.00,VWS V14.01,2013-02-03 20:04:00,
2013-02-03 15:05:00,30.9,17.1,29.74,West,270,3.8,3.8,56,0.00,,SKC,0.00,VWS V14.01,2013-02-03 20:05:00,
2013-02-03 15:06:00,30.2,16.8,29.71,WNW,292,4.3,5.8,57,0.00,,SKC,0.00,VWS V14.01,2013-02-03 20:06:00,
2013-02-03 15:08:00,30.2,16.8,29.71,WNW,292,4.3,4.3,57,0.00,,SKC,0.00,VWS V14.01,2013-02-03 20:08:00,
2013-02-03 15:10:00,30.9,17.1,29.74,West,270,3.8,3.8,56,0.00,,SKC,0.00,VWS V14.01,2013-02-03 20:10:00,
2013-02-03 15:12:00,30.2,16.8,29.71,NW,315,5.6,5.6,57,0.00,,SKC,0.00,VWS V14.01,2013-02-03 20:12:00,
2013-02-03 15:14:00,30.2,16.4,29.71,NW,315,5.6,5.6,56,0.00,,SKC,0.00,VWS V14.01,2013-02-03 20:14:00,
2013-02-03 15:15:00,30.7,16.5,29.74,West,270,3.8,3.8,55,0.00,,SKC,0.00,VWS V14.01,2013-02-03 20:15:00,
2013-02-03 15:16:00,30.2,16.4,29.71,NW,315,5.6,5.6,56,0.00,,SKC,0.00,VWS V14.01,2013-02-03 20:16:00,
2013-02-03 15:18:00,30.0,16.2,29.71,NW,315,5.6,5.6,56,0.00,,SKC,0.00,VWS V14.01,2013-02-03 20:18:00,
2013-02-03 15:20:00,30.6,16.3,29.74,West,270,3.8,3.8,55,0.00,,SKC,0.00,VWS V14.01,2013-02-03 20:20:00,
2013-02-03 15:22:00,29.8,16.1,29.71,NW,315,5.6,5.6,56,0.00,,SKC,0.00,VWS V14.01,2013-02-03 20:22:00,
2013-02-03 15:24:00,29.8,15.7,29.71,NW,315,5.6,5.6,55,0.00,,SKC,0.00,VWS V14.01,2013-02-03 20:24:00,
2013-02-03 15:25:00,30.4,16.6,29.74,West,270,3.8,3.8,56,0.00,,SKC,0.00,VWS V14.01,2013-02-03 20:25:00,
2013-02-03 15:26:00,29.8,15.7,29.71,NW,315,5.6,5.6,55,0.00,,SKC,0.00,VWS V14.01,2013-02-03 20:26:00,
2013-02-03 15:28:00,29.8,15.7,29.71,NW,315,5.6,5.6,55,0.00,,SKC,0.00,VWS V14.01,2013-02-03 20:28:00,
2013-02-03 15:30:00,30.2,16.4,29.74,NW,315,3.6,3.8,56,0.00,,SKC,0.00,VWS V14.01,2013-02-03 20:30:00,
2013-02-03 15:32:00,29.7,15.5,29.71,NW,315,5.6,5.6,55,0.00,,SKC,0.00,VWS V14.01,2013-02-03 20:32:00,
2013-02-03 15:34:00,29.7,15.5,29.71,NW,315,5.6,5.6,55,0.00,,SKC,0.00,VWS V14.01,2013-02-03 20:34:00,
2013-02-03 15:35:00,30.2,16.8,29.74,NW,315,3.6,3.6,57,0.00,,SKC,0.00,VWS V14.01,2013-02-03 20:35:00,
2013-02-03 15:36:00,29.7,15.5,29.71,NW,315,5.6,5.6,55,0.00,,SKC,0.00,VWS V14.01,2013-02-03 20:36:00,
2013-02-03 15:38:00,29.5,14.9,29.71,NW,315,5.6,5.6,54,0.00,,SKC,0.00,VWS V14.01,2013-02-03 20:38:00,
2013-02-03 15:40:00,30.2,16.4,29.74,WNW,292,4.7,4.7,56,0.00,,SKC,0.00,VWS V14.01,2013-02-03 20:40:00,
2013-02-03 15:42:00,29.5,14.9,29.71,NW,315,5.6,5.6,54,0.00,,SKC,0.00,VWS V14.01,2013-02-03 20:42:00,
2013-02-03 15:44:00,29.5,14.9,29.74,NW,315,5.6,5.6,54,0.00,,SKC,0.00,VWS V14.01,2013-02-03 20:44:00,
2013-02-03 15:45:00,30.2,16.4,29.74,NW,315,3.4,3.4,56,0.00,,SKC,0.00,VWS V14.01,2013-02-03 20:45:00,
2013-02-03 15:46:00,29.5,14.5,29.74,NW,315,5.6,5.6,53,0.00,,SKC,0.00,VWS V14.01,2013-02-03 20:46:00,
2013-02-03 15:48:00,29.5,14.9,29.74,NW,315,5.6,5.6,54,0.00,,SKC,0.00,VWS V14.01,2013-02-03 20:48:00,
2013-02-03 15:50:00,30.2,16.8,29.74,NW,315,5.6,5.6,57,0.00,,SKC,0.00,VWS V14.01,2013-02-03 20:50:00,
2013-02-03 15:52:00,29.5,14.9,29.74,NW,315,5.6,5.6,54,0.00,,SKC,0.00,VWS V14.01,2013-02-03 20:52:00,
2013-02-03 15:54:00,29.5,14.9,29.74,NW,315,5.6,5.6,54,0.00,,SKC,0.00,VWS V14.01,2013-02-03 20:54:00,
2013-02-03 15:55:00,30.2,16.8,29.74,NW,315,6.0,6.0,57,0.00,,SKC,0.00,VWS V14.01,2013-02-03 20:55:00,
2013-02-03 15:56:00,29.3,14.7,29.74,NW,315,5.6,5.6,54,0.00,,SKC,0.00,VWS V14.01,2013-02-03 20:56:00,
2013-02-03 15:58:00,29.3,14.7,29.74,NW,315,6.5,6.5,54,0.00,,SKC,0.00,VWS V14.01,2013-02-03 20:58:00,
2013-02-03 16:00:00,30.4,17.0,29.71,NW,315,6.0,6.0,57,0.00,,SKC,0.00,VWS V14.01,2013-02-03 21:00:00,
2013-02-03 16:02:00,29.5,14.9,29.71,NW,315,6.5,6.5,54,0.00,,SKC,0.00,VWS V14.01,2013-02-03 21:02:00,
2013-02-03 16:04:00,29.3,14.7,29.71,NW,315,6.5,6.5,54,0.00,,SKC,0.00,VWS V14.01,2013-02-03 21:04:00,
2013-02-03 16:05:00,30.2,16.8,29.71,WNW,292,4.3,5.8,57,0.00,,SKC,0.00,VWS V14.01,2013-02-03 21:05:00,
2013-02-03 16:06:00,29.3,14.7,29.71,NW,315,5.4,6.5,54,0.00,,SKC,0.00,VWS V14.01,2013-02-03 21:06:00,
2013-02-03 16:08:00,29.3,14.7,29.71,NW,315,5.4,5.4,54,0.00,,SKC,0.00,VWS V14.01,2013-02-03 21:08:00,
2013-02-03 16:10:00,30.2,16.8,29.71,NW,315,5.6,5.6,57,0.00,,SKC,0.00,VWS V14.01,2013-02-03 21:10:00,
2013-02-03 16:12:00,29.3,14.7,29.71,NW,315,5.4,5.4,54,0.00,,SKC,0.00,VWS V14.01,2013-02-03 21:12:00,
2013-02-03 16:14:00,29.3,14.7,29.74,NW,315,5.4,5.4,54,0.00,,SKC,0.00,VWS V14.01,2013-02-03 21:14:00,
2013-02-03 16:15:00,30.2,16.4,29.71,NW,315,5.6,5.6,56,0.00,,SKC,0.00,VWS V14.01,2013-02-03 21:15:00,
2013-02-03 16:16:00,29.3,14.7,29.74,NW,315,5.4,5.4,54,0.00,,SKC,0.00,VWS V14.01,2013-02-03 21:16:00,
2013-02-03 16:18:00,29.3,14.3,29.74,NW,315,5.4,5.4,53,0.00,,SKC,0.00,VWS V14.01,2013-02-03 21:18:00,
2013-02-03 16:20:00,29.8,16.1,29.71,NW,315,5.6,5.6,56,0.00,,SKC,0.00,VWS V14.01,2013-02-03 21:20:00,
2013-02-03 16:22:00,29.1,14.1,29.74,NW,315,5.4,5.4,53,0.00,,SKC,0.00,VWS V14.01,2013-02-03 21:22:00,
2013-02-03 16:24:00,29.1,14.6,29.74,NW,315,5.4,5.4,54,0.00,,SKC,0.00,VWS V14.01,2013-02-03 21:24:00,
2013-02-03 16:25:00,29.8,15.7,29.71,NW,315,5.6,5.6,55,0.00,,SKC,0.00,VWS V14.01,2013-02-03 21:25:00,
2013-02-03 16:26:00,29.1,14.1,29.74,NW,315,5.4,5.4,53,0.00,,SKC,0.00,VWS V14.01,2013-02-03 21:26:00,
2013-02-03 16:28:00,29.1,14.1,29.74,NW,315,5.4,5.4,53,0.00,,SKC,0.00,VWS V14.01,2013-02-03 21:28:00,
2013-02-03 16:30:00,29.7,15.5,29.71,NW,315,5.6,5.6,55,0.00,,SKC,0.00,VWS V14.01,2013-02-03 21:30:00,
2013-02-03 16:32:00,28.9,14.0,29.74,NW,315,7.4,7.4,53,0.00,,SKC,0.00,VWS V14.01,2013-02-03 21:32:00,
2013-02-03 16:34:00,28.9,14.0,29.74,NW,315,7.4,7.4,53,0.00,,SKC,0.00,VWS V14.01,2013-02-03 21:34:00,
2013-02-03 16:35:00,29.7,15.5,29.71,NW,315,5.6,5.6,55,0.00,,SKC,0.00,VWS V14.01,2013-02-03 21:35:00,
2013-02-03 16:36:00,29.1,14.1,29.74,NNW,338,5.8,7.4,53,0.00,,SKC,0.00,VWS V14.01,2013-02-03 21:36:00,
2013-02-03 16:38:00,29.1,14.1,29.74,NW,315,5.4,5.8,53,0.00,,SKC,0.00,VWS V14.01,2013-02-03 21:38:00,
2013-02-03 16:40:00,29.5,14.9,29.71,NW,315,5.6,5.6,54,0.00,,SKC,0.00,VWS V14.01,2013-02-03 21:40:00,
2013-02-03 16:42:00,29.3,14.7,29.74,NW,315,5.4,5.4,54,0.00,,SKC,0.00,VWS V14.01,2013-02-03 21:42:00,
2013-02-03 16:44:00,29.3,14.7,29.74,NW,315,5.4,5.4,54,0.00,,SKC,0.00,VWS V14.01,2013-02-03 21:44:00,
2013-02-03 16:45:00,29.5,14.5,29.74,NW,315,5.6,5.6,53,0.00,,SKC,0.00,VWS V14.01,2013-02-03 21:45:00,
2013-02-03 16:46:00,29.3,14.7,29.74,NW,315,5.4,7.4,54,0.00,,SKC,0.00,VWS V14.01,2013-02-03 21:46:00,
2013-02-03 16:48:00,29.3,15.1,29.74,NW,315,5.4,5.4,55,0.00,,SKC,0.00,VWS V14.01,2013-02-03 21:48:00,
2013-02-03 16:50:00,29.5,14.9,29.74,NW,315,5.6,5.6,54,0.00,,SKC,0.00,VWS V14.01,2013-02-03 21:50:00,
2013-02-03 16:52:00,29.3,15.6,29.74,West,270,5.8,5.8,56,0.00,,SKC,0.00,VWS V14.01,2013-02-03 21:52:00,
2013-02-03 16:54:00,29.3,15.6,29.74,West,270,5.8,5.8,56,0.00,,SKC,0.00,VWS V14.01,2013-02-03 21:54:00,
2013-02-03 16:55:00,29.5,14.9,29.74,NW,315,5.6,5.6,54,0.00,,SKC,0.00,VWS V14.01,2013-02-03 21:55:00,
2013-02-03 16:56:00,29.3,15.6,29.74,West,270,5.8,5.8,56,0.00,,SKC,0.00,VWS V14.01,2013-02-03 21:56:00,
2013-02-03 16:58:00,29.3,15.6,29.74,WNW,292,5.6,5.8,56,0.00,,SKC,0.00,VWS V14.01,2013-02-03 21:58:00,
2013-02-03 17:00:00,29.3,14.7,29.71,NW,315,6.5,6.5,54,0.00,,SKC,0.00,VWS V14.01,2013-02-03 22:00:00,
2013-02-03 17:02:00,29.3,16.0,29.74,WNW,292,4.9,5.6,57,0.00,,SKC,0.00,VWS V14.01,2013-02-03 22:02:00,
2013-02-03 17:04:00,29.3,16.0,29.74,WNW,292,3.8,3.8,57,0.00,,SKC,0.00,VWS V14.01,2013-02-03 22:04:00,
2013-02-03 17:05:00,29.3,14.7,29.71,NW,315,5.4,6.5,54,0.00,,SKC,0.00,VWS V14.01,2013-02-03 22:05:00,
2013-02-03 17:06:00,29.3,16.0,29.74,WNW,292,7.6,7.6,57,0.00,,SKC,0.00,VWS V14.01,2013-02-03 22:06:00,
2013-02-03 17:08:00,29.3,16.0,29.74,WNW,292,3.1,7.6,57,0.00,,SKC,0.00,VWS V14.01,2013-02-03 22:08:00,
2013-02-03 17:10:00,29.3,14.7,29.71,NW,315,5.4,5.4,54,0.00,,SKC,0.00,VWS V14.01,2013-02-03 22:10:00,
2013-02-03 17:12:00,29.3,16.4,29.74,NW,315,6.3,6.3,58,0.00,,SKC,0.00,VWS V14.01,2013-02-03 22:12:00,
2013-02-03 17:14:00,29.3,16.4,29.74,NW,315,6.3,6.3,58,0.00,,SKC,0.00,VWS V14.01,2013-02-03 22:14:00,
2013-02-03 17:15:00,29.3,14.7,29.74,NW,315,5.4,5.4,54,0.00,,SKC,0.00,VWS V14.01,2013-02-03 22:15:00,
2013-02-03 17:16:00,29.5,16.5,29.74,NW,315,6.3,6.3,58,0.00,,SKC,0.00,VWS V14.01,2013-02-03 22:16:00,
2013-02-03 17:18:00,29.5,16.5,29.74,NW,315,6.3,6.3,58,0.00,,SKC,0.00,VWS V14.01,2013-02-03 22:18:00,
2013-02-03 17:20:00,29.1,14.6,29.74,NW,315,5.4,5.4,54,0.00,,SKC,0.00,VWS V14.01,2013-02-03 22:20:00,
2013-02-03 17:22:00,29.5,16.5,29.74,NW,315,7.8,7.8,58,0.00,,SKC,0.00,VWS V14.01,2013-02-03 22:22:00,
2013-02-03 17:24:00,29.5,16.1,29.74,NW,315,4.9,7.8,57,0.00,,SKC,0.00,VWS V14.01,2013-02-03 22:24:00,
2013-02-03 17:25:00,29.1,14.1,29.74,NW,315,5.4,5.4,53,0.00,,SKC,0.00,VWS V14.01,2013-02-03 22:25:00,
2013-02-03 17:26:00,29.5,15.7,29.74,NW,315,4.9,5.6,56,0.00,,SKC,0.00,VWS V14.01,2013-02-03 22:26:00,
2013-02-03 17:28:00,29.5,15.7,29.74,NW,315,3.4,4.9,56,0.00,,SKC,0.00,VWS V14.01,2013-02-03 22:28:00,
2013-02-03 17:30:00,29.1,14.1,29.74,NW,315,5.4,5.4,53,0.00,,SKC,0.00,VWS V14.01,2013-02-03 22:30:00,
2013-02-03 17:32:00,29.5,15.3,29.74,NW,315,4.9,4.9,55,0.00,,SKC,0.00,VWS V14.01,2013-02-03 22:32:00,
2013-02-03 17:34:00,29.5,15.3,29.74,NW,315,4.9,4.9,55,0.00,,SKC,0.00,VWS V14.01,2013-02-03 22:34:00,
2013-02-03 17:35:00,29.1,14.1,29.74,NNW,338,5.8,7.4,53,0.00,,SKC,0.00,VWS V14.01,2013-02-03 22:35:00,
2013-02-03 17:36:00,29.5,15.3,29.74,NW,315,4.9,4.9,55,0.00,,SKC,0.00,VWS V14.01,2013-02-03 22:36:00,
2013-02-03 17:38:00,29.5,15.3,29.74,NW,315,4.9,4.9,55,0.00,,SKC,0.00,VWS V14.01,2013-02-03 22:38:00,
2013-02-03 17:40:00,29.5,15.3,29.74,NW,315,4.9,4.9,55,0.00,,SKC,0.00,VWS V14.01,2013-02-03 22:40:00,
2013-02-03 17:41:00,29.3,14.7,29.74,NW,315,5.4,5.4,54,0.00,,SKC,0.00,VWS V14.01,2013-02-03 22:41:00,
2013-02-03 17:42:00,29.5,15.3,29.74,NW,315,4.9,4.9,55,0.00,,SKC,0.00,VWS V14.01,2013-02-03 22:42:00,
2013-02-03 17:44:00,29.5,14.9,29.74,NW,315,4.9,4.9,54,0.00,,SKC,0.00,VWS V14.01,2013-02-03 22:44:00,
2013-02-03 17:46:00,29.3,14.7,29.74,NW,315,5.4,7.4,54,0.00,,SKC,0.00,VWS V14.01,2013-02-03 22:46:00,
2013-02-03 17:48:00,29.5,14.9,29.74,NW,315,5.4,5.4,54,0.00,,SKC,0.00,VWS V14.01,2013-02-03 22:48:00,
2013-02-03 17:50:00,29.5,14.9,29.74,NW,315,7.2,7.2,54,0.00,,SKC,0.00,VWS V14.01,2013-02-03 22:50:00,
2013-02-03 17:51:00,29.3,15.1,29.74,West,270,5.8,6.3,55,0.00,,SKC,0.00,VWS V14.01,2013-02-03 22:51:00,
2013-02-03 17:52:00,29.7,14.6,29.74,NW,315,7.2,7.2,53,0.00,,SKC,0.00,VWS V14.01,2013-02-03 22:52:00,
2013-02-03 17:54:00,29.7,14.6,29.74,NW,315,5.4,7.2,53,0.00,,SKC,0.00,VWS V14.01,2013-02-03 22:54:00,
2013-02-03 17:56:00,29.3,15.6,29.74,West,270,5.8,5.8,56,0.00,,SKC,0.00,VWS V14.01,2013-02-03 22:56:00,
2013-02-03 17:58:00,29.7,14.6,29.74,NW,315,5.4,5.4,53,0.00,,SKC,0.00,VWS V14.01,2013-02-03 22:58:00,
2013-02-03 18:00:00,29.7,14.6,29.74,NW,315,5.4,5.4,53,0.00,,SKC,0.00,VWS V14.01,2013-02-03 23:00:00,
2013-02-03 18:01:00,29.3,16.0,29.74,West,270,5.4,5.6,57,0.00,,SKC,0.00,VWS V14.01,2013-02-03 23:01:00,
2013-02-03 18:02:00,29.8,14.8,29.74,NW,315,5.4,5.4,53,0.00,,SKC,0.00,VWS V14.01,2013-02-03 23:02:00,
2013-02-03 18:04:00,29.8,14.8,29.74,NW,315,5.4,5.4,53,0.00,,SKC,0.00,VWS V14.01,2013-02-03 23:04:00,
2013-02-03 18:06:00,29.3,16.0,29.74,WNW,292,7.6,7.6,57,0.00,,SKC,0.00,VWS V14.01,2013-02-03 23:06:00,
2013-02-03 18:08:00,29.8,14.8,29.74,NNW,338,5.8,5.8,53,0.00,,SKC,0.00,VWS V14.01,2013-02-03 23:08:00,
2013-02-03 18:10:00,30.0,15.0,29.74,NNW,338,5.8,5.8,53,0.00,,SKC,0.00,VWS V14.01,2013-02-03 23:10:00,
2013-02-03 18:11:00,29.3,16.4,29.74,NW,315,6.3,6.3,58,0.00,,SKC,0.00,VWS V14.01,2013-02-03 23:11:00,
2013-02-03 18:12:00,30.0,15.0,29.74,NNW,338,5.8,5.8,53,0.00,,SKC,0.00,VWS V14.01,2013-02-03 23:12:00,
2013-02-03 18:14:00,30.0,15.4,29.74,NW,315,4.9,4.9,54,0.00,,SKC,0.00,VWS V14.01,2013-02-03 23:14:00,
2013-02-03 18:16:00,29.5,16.5,29.74,NW,315,6.3,6.3,58,0.00,,SKC,0.00,VWS V14.01,2013-02-03 23:16:00,
2013-02-03 18:18:00,29.8,15.2,29.74,NW,315,4.9,4.9,54,0.00,,SKC,0.00,VWS V14.01,2013-02-03 23:18:00,
2013-02-03 18:20:00,29.8,15.2,29.74,NW,315,7.2,7.2,54,0.00,,SKC,0.00,VWS V14.01,2013-02-03 23:20:00,
2013-02-03 18:21:00,29.5,16.5,29.74,WNW,292,5.4,5.4,58,0.00,,SKC,0.00,VWS V14.01,2013-02-03 23:21:00,
2013-02-03 18:22:00,29.8,15.2,29.74,NW,315,7.2,7.2,54,0.00,,SKC,0.00,VWS V14.01,2013-02-03 23:22:00,
2013-02-03 18:24:00,29.8,15.2,29.74,NW,315,8.1,8.1,54,0.00,,SKC,0.00,VWS V14.01,2013-02-03 23:24:00,
2013-02-03 18:26:00,29.5,15.7,29.74,NW,315,4.9,5.6,56,0.00,,SKC,0.00,VWS V14.01,2013-02-03 23:26:00,
2013-02-03 18:28:00,29.7,15.1,29.74,NW,315,8.1,8.1,54,0.00,,SKC,0.00,VWS V14.01,2013-02-03 23:28:00,
2013-02-03 18:30:00,29.7,14.6,29.74,NW,315,8.1,8.1,53,0.00,,SKC,0.00,VWS V14.01,2013-02-03 23:30:00,
2013-02-03 18:31:00,29.5,15.3,29.74,NW,315,4.9,4.9,55,0.00,,SKC,0.00,VWS V14.01,2013-02-03 23:31:00,
2013-02-03 18:32:00,29.7,15.1,29.74,NW,315,8.1,8.1,54,0.00,,SKC,0.00,VWS V14.01,2013-02-03 23:32:00,
2013-02-03 18:34:00,29.5,14.5,29.74,NW,315,8.1,8.1,53,0.00,,SKC,0.00,VWS V14.01,2013-02-03 23:34:00,
2013-02-03 18:36:00,29.5,15.3,29.74,NW,315,4.9,4.9,55,0.00,,SKC,0.00,VWS V14.01,2013-02-03 23:36:00,
2013-02-03 18:38:00,29.5,14.5,29.74,NW,315,4.9,8.1,53,0.00,,SKC,0.00,VWS V14.01,2013-02-03 23:38:00,
2013-02-03 18:40:00,29.5,14.5,29.74,NW,315,4.9,4.9,53,0.00,,SKC,0.00,VWS V14.01,2013-02-03 23:40:00,
2013-02-03 18:41:00,29.5,15.3,29.74,NW,315,4.9,4.9,55,0.00,,SKC,0.00,VWS V14.01,2013-02-03 23:41:00,
2013-02-03 18:42:00,29.3,14.3,29.74,NW,315,4.9,4.9,53,0.00,,SKC,0.00,VWS V14.01,2013-02-03 23:42:00,
2013-02-03 18:44:00,29.3,14.3,29.74,NW,315,4.9,4.9,53,0.00,,SKC,0.00,VWS V14.01,2013-02-03 23:44:00,
2013-02-03 18:46:00,29.5,14.9,29.74,NW,315,5.4,6.3,54,0.00,,SKC,0.00,VWS V14.01,2013-02-03 23:46:00,
2013-02-03 18:48:00,29.1,14.1,29.74,NW,315,4.9,4.9,53,0.00,,SKC,0.00,VWS V14.01,2013-02-03 23:48:00,
2013-02-03 18:50:00,29.1,14.1,29.74,NW,315,4.3,4.9,53,0.00,,SKC,0.00,VWS V14.01,2013-02-03 23:50:00,
2013-02-03 18:51:00,29.5,14.9,29.74,NW,315,7.2,7.2,54,0.00,,SKC,0.00,VWS V14.01,2013-02-03 23:51:00,
2013-02-03 18:52:00,29.1,14.1,29.74,NW,315,4.3,4.3,53,0.00,,SKC,0.00,VWS V14.01,2013-02-03 23:52:00,
2013-02-03 18:54:00,29.1,14.1,29.74,NW,315,4.3,4.3,53,0.00,,SKC,0.00,VWS V14.01,2013-02-03 23:54:00,
2013-02-03 18:56:00,29.7,14.6,29.74,NW,315,5.4,5.4,53,0.00,,SKC,0.00,VWS V14.01,2013-02-03 23:56:00,
2013-02-03 18:58:00,28.9,14.0,29.74,NW,315,4.3,4.3,53,0.00,,SKC,0.00,VWS V14.01,2013-02-03 23:58:00,
2013-02-03 19:00:00,28.9,14.0,29.74,NW,315,4.3,4.3,53,0.00,,SKC,0.00,VWS V14.01,2013-02-04 00:00:00,
2013-02-03 19:01:00,29.8,14.8,29.74,NW,315,5.4,5.4,53,0.00,,SKC,0.00,VWS V14.01,2013-02-04 00:01:00,
2013-02-03 19:02:00,28.9,14.0,29.74,NW,315,4.3,4.3,53,0.00,,SKC,0.00,VWS V14.01,2013-02-04 00:02:00,
2013-02-03 19:04:00,28.8,13.8,29.74,NW,315,4.3,4.3,53,0.00,,SKC,0.00,VWS V14.01,2013-02-04 00:04:00,
2013-02-03 19:06:00,29.8,14.8,29.74,NNW,338,5.8,5.8,53,0.00,,SKC,0.00,VWS V14.01,2013-02-04 00:06:00,
2013-02-03 19:08:00,28.8,13.8,29.74,NW,315,4.3,4.3,53,0.00,,SKC,0.00,VWS V14.01,2013-02-04 00:08:00,
2013-02-03 19:10:00,28.8,13.8,29.74,NW,315,4.3,4.3,53,0.00,,SKC,0.00,VWS V14.01,2013-02-04 00:10:00,
2013-02-03 19:11:00,30.0,15.0,29.74,NNW,338,5.8,5.8,53,0.00,,SKC,0.00,VWS V14.01,2013-02-04 00:11:00,
2013-02-03 19:12:00,28.8,13.8,29.74,NW,315,4.3,4.3,53,0.00,,SKC,0.00,VWS V14.01,2013-02-04 00:12:00,
2013-02-03 19:14:00,28.8,13.8,29.71,NW,315,4.3,4.3,53,0.00,,SKC,0.00,VWS V14.01,2013-02-04 00:14:00,
2013-02-03 19:16:00,29.8,15.2,29.74,NW,315,4.9,4.9,54,0.00,,SKC,0.00,VWS V14.01,2013-02-04 00:16:00,
2013-02-03 19:18:00,28.6,13.6,29.71,NW,315,4.3,4.3,53,0.00,,SKC,0.00,VWS V14.01,2013-02-04 00:18:00,
2013-02-03 19:20:00,28.6,13.6,29.71,NW,315,4.3,4.3,53,0.00,,SKC,0.00,VWS V14.01,2013-02-04 00:20:00,
2013-02-03 19:21:00,29.8,15.2,29.74,NW,315,7.2,7.2,54,0.00,,SKC,0.00,VWS V14.01,2013-02-04 00:21:00,
2013-02-03 19:22:00,28.6,13.6,29.71,NW,315,6.3,6.3,53,0.00,,SKC,0.00,VWS V14.01,2013-02-04 00:22:00,
2013-02-03 19:24:00,28.6,13.6,29.71,NW,315,6.3,6.3,53,0.00,,SKC,0.00,VWS V14.01,2013-02-04 00:24:00,
2013-02-03 19:26:00,29.8,15.2,29.74,NW,315,8.1,8.1,54,0.00,,SKC,0.00,VWS V14.01,2013-02-04 00:26:00,
2013-02-03 19:28:00,28.6,13.6,29.71,NW,315,6.0,6.3,53,0.00,,SKC,0.00,VWS V14.01,2013-02-04 00:28:00,
2013-02-03 19:30:00,28.6,14.1,29.74,NW,315,6.0,6.0,54,0.00,,SKC,0.00,VWS V14.01,2013-02-04 00:30:00,
2013-02-03 19:31:00,29.7,15.1,29.74,NW,315,8.1,8.1,54,0.00,,SKC,0.00,VWS V14.01,2013-02-04 00:31:00,
2013-02-03 19:32:00,28.6,13.6,29.74,NW,315,7.4,7.6,53,0.00,,SKC,0.00,VWS V14.01,2013-02-04 00:32:00,
2013-02-03 19:34:00,28.6,13.6,29.74,NNW,338,5.4,8.7,53,0.00,,SKC,0.00,VWS V14.01,2013-02-04 00:34:00,
2013-02-03 19:36:00,29.5,14.5,29.74,NW,315,8.1,8.1,53,0.00,,SKC,0.00,VWS V14.01,2013-02-04 00:36:00,
2013-02-03 19:38:00,28.6,13.6,29.74,NW,315,4.9,8.7,53,0.00,,SKC,0.00,VWS V14.01,2013-02-04 00:38:00,
2013-02-03 19:40:00,28.6,13.6,29.74,NW,315,6.5,7.4,53,0.00,,SKC,0.00,VWS V14.01,2013-02-04 00:40:00,
2013-02-03 19:41:00,29.3,14.3,29.74,NW,315,4.9,4.9,53,0.00,,SKC,0.00,VWS V14.01,2013-02-04 00:41:00,
2013-02-03 19:42:00,28.6,13.6,29.74,NW,315,7.8,7.8,53,0.00,,SKC,0.00,VWS V14.01,2013-02-04 00:42:00,
2013-02-03 19:44:00,28.6,13.6,29.76,NW,315,5.8,9.0,53,0.00,,SKC,0.00,VWS V14.01,2013-02-04 00:44:00,
2013-02-03 19:46:00,29.3,14.3,29.74,NW,315,4.9,4.9,53,0.00,,SKC,0.00,VWS V14.01,2013-02-04 00:46:00,
2013-02-03 19:48:00,28.6,13.6,29.76,NW,315,7.8,8.5,53,0.00,,SKC,0.00,VWS V14.01,2013-02-04 00:48:00,
2013-02-03 19:50:00,28.6,13.6,29.76,NW,315,6.3,8.7,53,0.00,,SKC,0.00,VWS V14.01,2013-02-04 00:50:00,
2013-02-03 19:51:00,29.1,14.1,29.74,NW,315,4.3,4.9,53,0.00,,SKC,0.00,VWS V14.01,2013-02-04 00:51:00,
2013-02-03 19:52:00,28.6,13.6,29.76,NW,315,5.6,10.3,53,0.00,,SKC,0.00,VWS V14.01,2013-02-04 00:52:00,
2013-02-03 19:54:00,28.6,13.6,29.76,NW,315,5.8,6.5,53,0.00,,SKC,0.00,VWS V14.01,2013-02-04 00:54:00,
2013-02-03 19:56:00,29.1,14.1,29.74,NW,315,4.3,4.3,53,0.00,,SKC,0.00,VWS V14.01,2013-02-04 00:56:00,
2013-02-03 19:58:00,28.4,13.5,29.76,NW,315,7.4,7.8,53,0.00,,SKC,0.00,VWS V14.01,2013-02-04 00:58:00,
2013-02-03 20:00:00,28.4,13.5,29.74,NW,315,6.5,9.6,53,0.00,,SKC,0.00,VWS V14.01,2013-02-04 01:00:00,
2013-02-03 20:01:00,28.9,14.0,29.74,NW,315,4.3,4.3,53,0.00,,SKC,0.00,VWS V14.01,2013-02-04 01:01:00,
2013-02-03 20:02:00,28.4,13.5,29.74,NW,315,5.6,7.6,53,0.00,,SKC,0.00,VWS V14.01,2013-02-04 01:02:00,
2013-02-03 20:04:00,28.4,13.5,29.74,WNW,292,6.3,7.6,53,0.00,,SKC,0.00,VWS V14.01,2013-02-04 01:04:00,
2013-02-03 20:06:00,28.8,13.8,29.74,NW,315,4.3,4.3,53,0.00,,SKC,0.00,VWS V14.01,2013-02-04 01:06:00,
2013-02-03 20:08:00,28.4,13.5,29.74,WNW,292,4.9,6.3,53,0.00,,SKC,0.00,VWS V14.01,2013-02-04 01:08:00,
2013-02-03 20:10:00,28.4,13.5,29.74,NW,315,6.9,7.8,53,0.00,,SKC,0.00,VWS V14.01,2013-02-04 01:10:00,
2013-02-03 20:11:00,28.8,13.8,29.74,NW,315,4.3,4.3,53,0.00,,SKC,0.00,VWS V14.01,2013-02-04 01:11:00,
2013-02-03 20:12:00,28.4,13.5,29.74,WNW,292,6.0,7.8,53,0.00,,SKC,0.00,VWS V14.01,2013-02-04 01:12:00,
2013-02-03 20:14:00,28.4,13.9,29.71,NNW,338,6.7,9.0,54,0.00,,SKC,0.00,VWS V14.01,2013-02-04 01:14:00,
2013-02-03 20:16:00,28.6,13.6,29.71,NW,315,4.3,4.3,53,0.00,,SKC,0.00,VWS V14.01,2013-02-04 01:16:00,
2013-02-03 20:18:00,28.2,13.7,29.71,NNW,338,6.3,8.7,54,0.00,,SKC,0.00,VWS V14.01,2013-02-04 01:18:00,
2013-02-03 20:20:00,28.2,13.7,29.71,NW,315,7.8,8.5,54,0.00,,SKC,0.00,VWS V14.01,2013-02-04 01:20:00,
2013-02-03 20:21:00,28.6,13.6,29.71,NW,315,6.3,6.3,53,0.00,,SKC,0.00,VWS V14.01,2013-02-04 01:21:00,
2013-02-03 20:22:00,28.0,13.6,29.71,NW,315,4.3,8.1,54,0.00,,SKC,0.00,VWS V14.01,2013-02-04 01:22:00,
2013-02-03 20:24:00,28.0,13.6,29.71,West,270,10.3,10.3,54,0.00,,SKC,0.00,VWS V14.01,2013-02-04 01:24:00,
2013-02-03 20:26:00,28.6,13.6,29.71,NW,315,6.3,6.3,53,0.00,,SKC,0.00,VWS V14.01,2013-02-04 01:26:00,
2013-02-03 20:28:00,28.0,13.6,29.71,WNW,292,6.0,10.5,54,0.00,,SKC,0.00,VWS V14.01,2013-02-04 01:28:00,
2013-02-03 20:30:00,27.9,13.4,29.74,WNW,292,4.9,8.1,54,0.00,,SKC,0.00,VWS V14.01,2013-02-04 01:30:00,
2013-02-03 20:31:00,28.6,13.6,29.74,NW,315,7.4,7.8,53,0.00,,SKC,0.00,VWS V14.01,2013-02-04 01:31:00,
2013-02-03 20:32:00,27.9,13.4,29.74,WNW,292,8.1,8.1,54,0.00,,SKC,0.00,VWS V14.01,2013-02-04 01:32:00,
2013-02-03 20:34:00,27.9,13.4,29.74,NW,315,6.3,10.3,54,0.00,,SKC,0.00,VWS V14.01,2013-02-04 01:34:00,
2013-02-03 20:36:00,28.6,13.6,29.74,NNW,338,8.7,8.7,53,0.00,,SKC,0.00,VWS V14.01,2013-02-04 01:36:00,
2013-02-03 20:38:00,27.9,13.4,29.74,NW,315,6.0,10.5,54,0.00,,SKC,0.00,VWS V14.01,2013-02-04 01:38:00,
2013-02-03 20:40:00,27.9,13.4,29.74,NW,315,5.6,7.8,54,0.00,,SKC,0.00,VWS V14.01,2013-02-04 01:40:00,
2013-02-03 20:41:00,28.6,13.6,29.74,NW,315,4.9,6.0,53,0.00,,SKC,0.00,VWS V14.01,2013-02-04 01:41:00,
2013-02-03 20:42:00,27.9,13.4,29.74,NW,315,9.8,9.8,54,0.00,,SKC,0.00,VWS V14.01,2013-02-04 01:42:00,
2013-02-03 20:44:00,27.9,13.8,29.74,West,270,4.3,9.8,55,0.00,,SKC,0.00,VWS V14.01,2013-02-04 01:44:00,
2013-02-03 20:46:00,28.6,13.6,29.76,NW,315,6.0,8.5,53,0.00,,SKC,0.00,VWS V14.01,2013-02-04 01:46:00,
2013-02-03 20:48:00,27.9,13.8,29.74,NW,315,8.5,9.8,55,0.00,,SKC,0.00,VWS V14.01,2013-02-04 01:48:00,
2013-02-03 20:50:00,27.9,13.8,29.74,WNW,292,8.1,9.6,55,0.00,,SKC,0.00,VWS V14.01,2013-02-04 01:50:00,
2013-02-03 20:51:00,28.6,13.6,29.76,NW,315,4.9,10.3,53,0.00,,SKC,0.00,VWS V14.01,2013-02-04 01:51:00,
2013-02-03 20:52:00,27.9,13.8,29.74,NW,315,8.5,10.7,55,0.00,,SKC,0.00,VWS V14.01,2013-02-04 01:52:00,
2013-02-03 20:54:00,27.9,13.8,29.74,WNW,292,9.6,9.6,55,0.00,,SKC,0.00,VWS V14.01,2013-02-04 01:54:00,
2013-02-03 20:56:00,28.4,13.5,29.76,NW,315,5.4,6.0,53,0.00,,SKC,0.00,VWS V14.01,2013-02-04 01:56:00,
2013-02-03 20:58:00,27.7,13.6,29.74,WNW,292,6.7,10.1,55,0.00,,SKC,0.00,VWS V14.01,2013-02-04 01:58:00,
2013-02-03 21:00:00,27.7,13.6,29.71,NW,315,7.4,10.3,55,0.00,,SKC,0.00,VWS V14.01,2013-02-04 02:00:00,
2013-02-03 21:01:00,28.4,13.5,29.74,NW,315,6.5,7.6,53,0.00,,SKC,0.00,VWS V14.01,2013-02-04 02:01:00,
2013-02-03 21:02:00,27.7,13.6,29.71,NW,315,8.7,13.6,55,0.00,,SKC,0.00,VWS V14.01,2013-02-04 02:02:00,
2013-02-03 21:04:00,27.7,13.6,29.71,NW,315,6.5,7.8,55,0.00,,SKC,0.00,VWS V14.01,2013-02-04 02:04:00,
2013-02-03 21:06:00,28.2,13.3,29.74,NW,315,5.6,6.3,53,0.00,,SKC,0.00,VWS V14.01,2013-02-04 02:06:00,
2013-02-03 21:08:00,27.7,13.6,29.71,NW,315,7.4,10.5,55,0.00,,SKC,0.00,VWS V14.01,2013-02-04 02:08:00,
2013-02-03 21:10:00,27.7,13.6,29.71,NW,315,6.3,12.1,55,0.00,,SKC,0.00,VWS V14.01,2013-02-04 02:10:00,
2013-02-03 21:11:00,28.4,13.5,29.74,WNW,292,5.8,7.8,53,0.00,,SKC,0.00,VWS V14.01,2013-02-04 02:11:00,
2013-02-03 21:12:00,27.7,13.6,29.71,WNW,292,13.0,13.0,55,0.00,,SKC,0.00,VWS V14.01,2013-02-04 02:12:00,
2013-02-03 21:14:00,27.7,13.6,29.74,NW,315,7.8,13.2,55,0.00,,SKC,0.00,VWS V14.01,2013-02-04 02:14:00,
2013-02-03 21:16:00,28.2,13.7,29.71,NNW,338,8.7,9.8,54,0.00,,SKC,0.00,VWS V14.01,2013-02-04 02:16:00,
2013-02-03 21:18:00,27.7,13.6,29.74,NW,315,9.2,10.3,55,0.00,,SKC,0.00,VWS V14.01,2013-02-04 02:18:00,
2013-02-03 21:20:00,27.7,13.6,29.74,NW,315,7.8,9.6,55,0.00,,SKC,0.00,VWS V14.01,2013-02-04 02:20:00,
2013-02-03 21:21:00,28.0,13.6,29.71,NW,315,4.7,8.1,54,0.00,,SKC,0.00,VWS V14.01,2013-02-04 02:21:00,
2013-02-03 21:22:00,27.7,13.6,29.74,NW,315,7.8,11.0,55,0.00,,SKC,0.00,VWS V14.01,2013-02-04 02:22:00,
2013-02-03 21:24:00,27.7,13.6,29.74,NW,315,9.6,9.8,55,0.00,,SKC,0.00,VWS V14.01,2013-02-04 02:24:00,
2013-02-03 21:26:00,28.0,13.6,29.71,NW,315,5.8,8.7,54,0.00,,SKC,0.00,VWS V14.01,2013-02-04 02:26:00,
2013-02-03 21:28:00,27.7,13.6,29.74,NW,315,10.1,10.1,55,0.00,,SKC,0.00,VWS V14.01,2013-02-04 02:28:00,
2013-02-03 21:30:00,27.7,13.6,29.74,WNW,292,9.2,12.1,55,0.00,,SKC,0.00,VWS V14.01,2013-02-04 02:30:00,
2013-02-03 21:31:00,27.9,13.4,29.74,WNW,292,8.1,8.1,54,0.00,,SKC,0.00,VWS V14.01,2013-02-04 02:31:00,
2013-02-03 21:32:00,27.7,13.6,29.74,NW,315,10.5,11.2,55,0.00,,SKC,0.00,VWS V14.01,2013-02-04 02:32:00,
2013-02-03 21:34:00,27.7,13.6,29.74,NW,315,7.8,11.0,55,0.00,,SKC,0.00,VWS V14.01,2013-02-04 02:34:00,
2013-02-03 21:36:00,27.9,13.4,29.74,NW,315,8.5,10.5,54,0.00,,SKC,0.00,VWS V14.01,2013-02-04 02:36:00,
2013-02-03 21:38:00,27.7,13.6,29.74,NW,315,6.5,9.8,55,0.00,,SKC,0.00,VWS V14.01,2013-02-04 02:38:00,
2013-02-03 21:40:00,27.7,13.6,29.74,NW,315,10.3,10.3,55,0.00,,SKC,0.00,VWS V14.01,2013-02-04 02:40:00,
2013-02-03 21:41:00,27.9,13.4,29.74,NW,315,9.8,9.8,54,0.00,,SKC,0.00,VWS V14.01,2013-02-04 02:41:00,
2013-02-03 21:42:00,27.7,13.6,29.74,NW,315,9.0,9.0,55,0.00,,SKC,0.00,VWS V14.01,2013-02-04 02:42:00,
2013-02-03 21:44:00,27.7,13.6,29.76,NW,315,6.3,10.3,55,0.00,,SKC,0.00,VWS V14.01,2013-02-04 02:44:00,
2013-02-03 21:46:00,27.9,13.8,29.74,NW,315,7.4,9.2,55,0.00,,SKC,0.00,VWS V14.01,2013-02-04 02:46:00,
2013-02-03 21:48:00,27.5,13.5,29.76,NW,315,8.1,8.1,55,0.00,,SKC,0.00,VWS V14.01,2013-02-04 02:48:00,
2013-02-03 21:50:00,27.5,13.5,29.76,NW,315,8.5,10.3,55,0.00,,SKC,0.00,VWS V14.01,2013-02-04 02:50:00,
2013-02-03 21:51:00,27.9,13.8,29.74,NW,315,8.5,10.7,55,0.00,,SKC,0.00,VWS V14.01,2013-02-04 02:51:00,
2013-02-03 21:52:00,27.5,13.5,29.76,NNW,338,7.8,9.6,55,0.00,,SKC,0.00,VWS V14.01,2013-02-04 02:52:00,
2013-02-03 21:54:00,27.5,13.5,29.76,NW,315,6.0,8.7,55,0.00,,SKC,0.00,VWS V14.01,2013-02-04 02:54:00,
2013-02-03 21:56:00,27.5,13.5,29.76,West,270,9.0,13.0,55,0.00,,SKC,0.00,VWS V14.01,2013-02-04 02:56:00,
2013-02-03 21:58:00,27.5,13.5,29.76,WNW,292,10.1,10.1,55,0.00,,SKC,0.00,VWS V14.01,2013-02-04 02:58:00,
2013-02-03 21:59:00,27.7,13.6,29.71,NW,315,10.3,10.3,55,0.00,,SKC,0.00,VWS V14.01,2013-02-04 02:59:00,
2013-02-03 22:00:00,27.5,13.5,29.76,NW,315,10.7,10.7,55,0.00,,SKC,0.00,VWS V14.01,2013-02-04 03:00:00,
2013-02-03 22:02:00,27.5,13.5,29.76,NW,315,6.3,10.5,55,0.00,,SKC,0.00,VWS V14.01,2013-02-04 03:02:00,
2013-02-03 22:04:00,27.7,13.6,29.71,NW,315,6.5,7.8,55,0.00,,SKC,0.00,VWS V14.01,2013-02-04 03:04:00,
2013-02-03 22:06:00,27.5,13.5,29.76,NW,315,8.1,11.9,55,0.00,,SKC,0.00,VWS V14.01,2013-02-04 03:06:00,
2013-02-03 22:08:00,27.5,13.5,29.76,WNW,292,7.4,8.7,55,0.00,,SKC,0.00,VWS V14.01,2013-02-04 03:08:00,
2013-02-03 22:09:00,27.7,13.6,29.71,NNW,338,8.7,12.1,55,0.00,,SKC,0.00,VWS V14.01,2013-02-04 03:09:00,
2013-02-03 22:10:00,27.5,13.5,29.76,NW,315,7.8,10.1,55,0.00,,SKC,0.00,VWS V14.01,2013-02-04 03:10:00,
2013-02-03 22:12:00,27.5,13.5,29.76,WNW,292,10.7,10.7,55,0.00,,SKC,0.00,VWS V14.01,2013-02-04 03:12:00,
2013-02-03 22:14:00,27.7,13.6,29.74,NW,315,7.8,13.2,55,0.00,,SKC,0.00,VWS V14.01,2013-02-04 03:14:00,
2013-02-03 22:16:00,27.5,13.5,29.74,West,270,11.2,12.1,55,0.00,,SKC,0.00,VWS V14.01,2013-02-04 03:16:00,
2013-02-03 22:18:00,27.5,13.5,29.74,WNW,292,8.1,10.5,55,0.00,,SKC,0.00,VWS V14.01,2013-02-04 03:18:00,
2013-02-03 22:19:00,27.7,13.6,29.74,NW,315,7.4,10.7,55,0.00,,SKC,0.00,VWS V14.01,2013-02-04 03:19:00,
2013-02-03 22:20:00,27.5,13.5,29.74,WNW,292,6.3,11.0,55,0.00,,SKC,0.00,VWS V14.01,2013-02-04 03:20:00,
2013-02-03 22:22:00,27.5,13.5,29.74,West,270,7.4,8.7,55,0.00,,SKC,0.00,VWS V14.01,2013-02-04 03:22:00,
2013-02-03 22:24:00,27.7,13.6,29.74,NW,315,9.6,10.1,55,0.00,,SKC,0.00,VWS V14.01,2013-02-04 03:24:00,
2013-02-03 22:26:00,27.5,13.9,29.74,NW,315,6.7,9.2,56,0.00,,SKC,0.00,VWS V14.01,2013-02-04 03:26:00,
2013-02-03 22:28:00,27.3,13.7,29.74,WNW,292,10.1,10.1,56,0.00,,SKC,0.00,VWS V14.01,2013-02-04 03:28:00,
2013-02-03 22:29:00,27.7,13.6,29.74,NW,315,9.8,10.5,55,0.00,,SKC,0.00,VWS V14.01,2013-02-04 03:29:00,
2013-02-03 22:30:00,27.3,13.7,29.74,WNW,292,7.8,9.8,56,0.00,,SKC,0.00,VWS V14.01,2013-02-04 03:30:00,
2013-02-03 22:32:00,27.3,13.7,29.74,WNW,292,10.1,15.4,56,0.00,,SKC,0.00,VWS V14.01,2013-02-04 03:32:00,
2013-02-03 22:34:00,27.7,13.6,29.74,NW,315,10.3,10.7,55,0.00,,SKC,0.00,VWS V14.01,2013-02-04 03:34:00,
2013-02-03 22:36:00,27.3,13.7,29.74,WNW,292,7.4,10.3,56,0.00,,SKC,0.00,VWS V14.01,2013-02-04 03:36:00,
2013-02-03 22:38:00,27.3,13.7,29.74,West,270,8.1,12.5,56,0.00,,SKC,0.00,VWS V14.01,2013-02-04 03:38:00,
2013-02-03 22:39:00,27.7,13.6,29.74,NW,315,5.4,9.6,55,0.00,,SKC,0.00,VWS V14.01,2013-02-04 03:39:00,
2013-02-03 22:40:00,27.3,13.7,29.74,NW,315,5.6,9.8,56,0.00,,SKC,0.00,VWS V14.01,2013-02-04 03:40:00,
2013-02-03 22:42:00,27.3,13.7,29.74,WNW,292,5.8,8.7,56,0.00,,SKC,0.00,VWS V14.01,2013-02-04 03:42:00,
2013-02-03 22:44:00,27.7,13.6,29.76,WNW,292,6.5,9.0,55,0.00,,SKC,0.00,VWS V14.01,2013-02-04 03:44:00,
2013-02-03 22:46:00,27.1,13.5,29.74,NW,315,10.3,10.3,56,0.00,,SKC,0.00,VWS V14.01,2013-02-04 03:46:00,
2013-02-03 22:48:00,27.1,13.5,29.74,WNW,292,7.6,10.3,56,0.00,,SKC,0.00,VWS V14.01,2013-02-04 03:48:00,
2013-02-03 22:49:00,27.5,13.5,29.76,WNW,292,8.5,10.3,55,0.00,,SKC,0.00,VWS V14.01,2013-02-04 03:49:00,
2013-02-03 22:50:00,27.1,13.5,29.74,NW,315,5.6,6.3,56,0.00,,SKC,0.00,VWS V14.01,2013-02-04 03:50:00,
2013-02-03 22:52:00,27.1,13.5,29.74,NW,315,6.0,8.1,56,0.00,,SKC,0.00,VWS V14.01,2013-02-04 03:52:00,
2013-02-03 22:54:00,27.5,13.5,29.76,NW,315,6.0,8.7,55,0.00,,SKC,0.00,VWS V14.01,2013-02-04 03:54:00,
2013-02-03 22:56:00,27.1,13.9,29.74,NW,315,6.3,9.8,57,0.00,,SKC,0.00,VWS V14.01,2013-02-04 03:56:00,
2013-02-03 22:58:00,27.1,13.9,29.74,WNW,292,5.8,8.5,57,0.00,,SKC,0.00,VWS V14.01,2013-02-04 03:58:00,
2013-02-03 22:59:00,27.5,13.5,29.76,WNW,292,7.6,10.7,55,0.00,,SKC,0.00,VWS V14.01,2013-02-04 03:59:00,
2013-02-03 23:00:00,27.1,13.9,29.74,NW,315,7.4,7.8,57,0.00,,SKC,0.00,VWS V14.01,2013-02-04 04:00:00,
2013-02-03 23:02:00,27.0,13.8,29.74,NW,315,4.7,6.0,57,0.00,,SKC,0.00,VWS V14.01,2013-02-04 04:02:00,
2013-02-03 23:04:00,27.5,13.5,29.76,West,270,9.8,9.8,55,0.00,,SKC,0.00,VWS V14.01,2013-02-04 04:04:00,
2013-02-03 23:06:00,27.0,13.8,29.74,NW,315,6.0,10.1,57,0.00,,SKC,0.00,VWS V14.01,2013-02-04 04:06:00,
2013-02-03 23:08:00,27.0,13.8,29.74,NW,315,4.9,7.6,57,0.00,,SKC,0.00,VWS V14.01,2013-02-04 04:08:00,
2013-02-03 23:09:00,27.5,13.5,29.76,NW,315,8.5,10.1,55,0.00,,SKC,0.00,VWS V14.01,2013-02-04 04:09:00,
2013-02-03 23:10:00,27.0,13.4,29.74,NNW,338,5.4,6.3,56,0.00,,SKC,0.00,VWS V14.01,2013-02-04 04:10:00,
2013-02-03 23:12:00,27.0,13.8,29.74,West,270,6.3,8.1,57,0.00,,SKC,0.00,VWS V14.01,2013-02-04 04:12:00,
2013-02-03 23:14:00,27.5,13.5,29.74,NW,315,8.7,13.4,55,0.00,,SKC,0.00,VWS V14.01,2013-02-04 04:14:00,
2013-02-03 23:16:00,27.0,13.4,29.74,WNW,292,6.3,7.4,56,0.00,,SKC,0.00,VWS V14.01,2013-02-04 04:16:00,
2013-02-03 23:18:00,27.0,13.8,29.74,West,270,8.1,8.1,57,0.00,,SKC,0.00,VWS V14.01,2013-02-04 04:18:00,
2013-02-03 23:19:00,27.5,13.5,29.74,WNW,292,11.0,11.0,55,0.00,,SKC,0.00,VWS V14.01,2013-02-04 04:19:00,
2013-02-03 23:20:00,26.8,13.6,29.74,WNW,292,6.3,10.3,57,0.00,,SKC,0.00,VWS V14.01,2013-02-04 04:20:00,
2013-02-03 23:22:00,26.8,13.2,29.74,West,270,5.4,11.4,56,0.00,,SKC,0.00,VWS V14.01,2013-02-04 04:22:00,
2013-02-03 23:24:00,27.5,13.5,29.74,West,270,9.2,11.2,55,0.00,,SKC,0.00,VWS V14.01,2013-02-04 04:24:00,
2013-02-03 23:26:00,27.0,13.4,29.74,WNW,292,6.0,10.1,56,0.00,,SKC,0.00,VWS V14.01,2013-02-04 04:26:00,
2013-02-03 23:28:00,27.0,13.8,29.74,West,270,8.1,8.1,57,0.00,,SKC,0.00,VWS V14.01,2013-02-04 04:28:00,
2013-02-03 23:29:00,27.3,13.7,29.74,West,270,8.7,9.8,56,0.00,,SKC,0.00,VWS V14.01,2013-02-04 04:29:00,
2013-02-03 23:30:00,27.0,13.8,29.74,NW,315,7.8,8.7,57,0.00,,SKC,0.00,VWS V14.01,2013-02-04 04:30:00,
2013-02-03 23:32:00,27.0,13.8,29.74,WNW,292,6.0,10.7,57,0.00,,SKC,0.00,VWS V14.01,2013-02-04 04:32:00,
2013-02-03 23:34:00,27.3,13.7,29.74,WNW,292,7.4,11.0,56,0.00,,SKC,0.00,VWS V14.01,2013-02-04 04:34:00,
2013-02-03 23:36:00,27.1,13.9,29.74,West,270,8.5,9.2,57,0.00,,SKC,0.00,VWS V14.01,2013-02-04 04:36:00,
2013-02-03 23:38:00,27.1,13.9,29.74,West,270,8.5,8.5,57,0.00,,SKC,0.00,VWS V14.01,2013-02-04 04:38:00,
2013-02-03 23:39:00,27.3,13.7,29.74,West,270,9.6,9.8,56,0.00,,SKC,0.00,VWS V14.01,2013-02-04 04:39:00,
2013-02-03 23:40:00,27.1,13.9,29.74,West,270,6.5,7.2,57,0.00,,SKC,0.00,VWS V14.01,2013-02-04 04:40:00,
2013-02-03 23:42:00,27.1,13.9,29.74,WNW,292,7.4,12.1,57,0.00,,SKC,0.00,VWS V14.01,2013-02-04 04:42:00,
2013-02-03 23:44:00,27.1,13.5,29.74,West,270,6.5,11.9,56,0.00,,SKC,0.00,VWS V14.01,2013-02-04 04:44:00,
2013-02-03 23:46:00,27.3,14.1,29.74,West,270,8.5,9.4,57,0.00,,SKC,0.00,VWS V14.01,2013-02-04 04:46:00,
2013-02-03 23:48:00,27.3,14.1,29.74,WNW,292,5.8,8.7,57,0.00,,SKC,0.00,VWS V14.01,2013-02-04 04:48:00,
2013-02-03 23:49:00,27.1,13.5,29.74,NW,315,6.0,6.3,56,0.00,,SKC,0.00,VWS V14.01,2013-02-04 04:49:00,
2013-02-03 23:50:00,27.5,14.3,29.74,WNW,292,7.8,9.2,57,0.00,,SKC,0.00,VWS V14.01,2013-02-04 04:50:00,
2013-02-03 23:52:00,27.5,14.3,29.74,West,270,6.0,8.7,57,0.00,,SKC,0.00,VWS V14.01,2013-02-04 04:52:00,
2013-02-03 23:54:00,27.1,13.9,29.74,WNW,292,7.8,9.8,57,0.00,,SKC,0.00,VWS V14.01,2013-02-04 04:54:00,
2013-02-03 23:56:00,27.7,14.1,29.74,NW,315,9.4,9.4,56,0.00,,SKC,0.00,VWS V14.01,2013-02-04 04:56:00,
2013-02-03 23:58:00,27.7,14.4,29.74,West,270,8.7,8.7,57,0.00,,SKC,0.00,VWS V14.01,2013-02-04 04:58:00,
2013-02-03 23:59:00,27.1,13.9,29.74,WNW,292,7.8,7.8,57,0.00,,SKC,0.00,VWS V14.01,2013-02-04 04:59:00,